Time,TemperatureF,DewpointF,PressureIn,WindDirection,WindDirectionDegrees,WindSpeedMPH,WindSpeedGustMPH,Humidity,HourlyPrecipIn,Conditions,Clouds,dailyrainin,SoftwareType,DateUTC
2013-05-31 00:00:00,74.5,67.2,30.03,East,98,0.0,6.0,78,0.00,,---,0.00,VWS V14.00,2013-05-31 04:00:00,
2013-05-31 00:01:00,74.5,67.2,30.03,East,79,5.0,8.0,78,0.00,,---,0.00,VWS V14.00,2013-05-31 04:01:00,
2013-05-31 00:05:00,74.5,67.2,30.03,ENE,78,0.0,8.0,78,0.00,,---,0.00,VWS V14.00,2013-05-31 04:05:00,
2013-05-31 00:06:00,74.5,67.2,30.02,East,80,0.0,0.0,78,0.00,,---,0.00,VWS V14.00,2013-05-31 04:06:00,
2013-05-31 00:10:00,74.5,67.2,30.03,East,86,3.0,8.0,78,0.00,,---,0.00,VWS V14.00,2013-05-31 04:10:00,
2013-05-31 00:11:00,74.4,67.1,30.03,East,81,5.0,8.0,78,0.00,,---,0.00,VWS V14.00,2013-05-31 04:11:00,
2013-05-31 00:15:00,74.4,67.1,30.02,East,87,5.0,8.0,78,0.00,,---,0.00,VWS V14.00,2013-05-31 04:15:00,
2013-05-31 00:16:00,74.4,67.1,30.02,East,82,2.0,7.0,78,0.00,,---,0.00,VWS V14.00,2013-05-31 04:16:00,
2013-05-31 00:20:00,74.4,67.1,30.02,East,101,4.0,10.0,78,0.00,,---,0.00,VWS V14.00,2013-05-31 04:20:00,
2013-05-31 00:21:00,74.4,67.1,30.02,East,101,0.0,5.0,78,0.00,,---,0.00,VWS V14.00,2013-05-31 04:21:00,
2013-05-31 00:25:00,74.3,67.4,30.02,East,80,0.0,5.0,79,0.00,,---,0.00,VWS V14.00,2013-05-31 04:25:00,
2013-05-31 00:26:00,74.3,67.0,30.02,East,81,0.0,0.0,78,0.00,,---,0.00,VWS V14.00,2013-05-31 04:26:00,
2013-05-31 00:30:00,74.2,66.9,30.02,East,96,1.0,6.0,78,0.00,,---,0.00,VWS V14.00,2013-05-31 04:30:00,
2013-05-31 00:31:00,74.2,67.3,30.02,ENE,72,1.0,7.0,79,0.00,,---,0.00,VWS V14.00,2013-05-31 04:31:00,
2013-05-31 00:35:00,74.1,67.2,30.02,ENE,75,1.0,7.0,79,0.00,,---,0.00,VWS V14.00,2013-05-31 04:35:00,
2013-05-31 00:36:00,74.1,67.2,30.02,ENE,67,6.0,7.0,79,0.00,,---,0.00,VWS V14.00,2013-05-31 04:36:00,
2013-05-31 00:40:00,74.0,67.1,30.02,ENE,61,3.0,8.0,79,0.00,,---,0.00,VWS V14.00,2013-05-31 04:40:00,
2013-05-31 00:41:00,74.0,67.1,30.02,ENE,66,3.0,6.0,79,0.00,,---,0.00,VWS V14.00,2013-05-31 04:41:00,
2013-05-31 00:45:00,74.0,67.4,30.02,ENE,66,0.0,6.0,80,0.00,,---,0.00,VWS V14.00,2013-05-31 04:45:00,
2013-05-31 00:46:00,73.9,67.0,30.02,ENE,67,1.0,4.0,79,0.00,,---,0.00,VWS V14.00,2013-05-31 04:46:00,
2013-05-31 00:50:00,73.9,67.3,30.02,ENE,69,0.0,6.0,80,0.00,,---,0.00,VWS V14.00,2013-05-31 04:50:00,
2013-05-31 00:51:00,73.8,67.2,30.02,ENE,63,1.0,7.0,80,0.00,,---,0.00,VWS V14.00,2013-05-31 04:51:00,
2013-05-31 00:55:00,73.8,67.2,30.02,ENE,57,5.0,7.0,80,0.00,,---,0.00,VWS V14.00,2013-05-31 04:55:00,
2013-05-31 00:56:00,73.8,67.2,30.02,ENE,57,0.0,6.0,80,0.00,,---,0.00,VWS V14.00,2013-05-31 04:56:00,
2013-05-31 01:00:00,73.7,67.2,30.02,ENE,57,0.0,6.0,80,0.00,,---,0.00,VWS V14.00,2013-05-31 05:00:00,
2013-05-31 01:01:00,73.7,67.2,30.02,ENE,57,0.0,0.0,80,0.00,,---,0.00,VWS V14.00,2013-05-31 05:01:00,
2013-05-31 01:05:00,73.7,67.2,30.02,ENE,61,1.0,6.0,80,0.00,,---,0.00,VWS V14.00,2013-05-31 05:05:00,
2013-05-31 01:06:00,73.6,67.1,30.02,ENE,61,0.0,5.0,80,0.00,,---,0.00,VWS V14.00,2013-05-31 05:06:00,
2013-05-31 01:10:00,73.5,67.0,30.02,ENE,61,0.0,5.0,80,0.00,,---,0.00,VWS V14.00,2013-05-31 05:10:00,
2013-05-31 01:11:00,73.5,67.0,30.02,ENE,63,0.0,0.0,80,0.00,,---,0.00,VWS V14.00,2013-05-31 05:11:00,
2013-05-31 01:15:00,73.4,66.9,30.02,ENE,65,0.0,0.0,80,0.00,,---,0.00,VWS V14.00,2013-05-31 05:15:00,
2013-05-31 01:16:00,73.4,66.9,30.02,ENE,65,0.0,0.0,80,0.00,,---,0.00,VWS V14.00,2013-05-31 05:16:00,
2013-05-31 01:20:00,73.3,66.8,30.02,ENE,65,0.0,0.0,80,0.00,,---,0.00,VWS V14.00,2013-05-31 05:20:00,
2013-05-31 01:21:00,73.3,66.8,30.02,ENE,65,0.0,0.0,80,0.00,,---,0.00,VWS V14.00,2013-05-31 05:21:00,
2013-05-31 01:25:00,73.2,66.7,30.02,ENE,66,0.0,0.0,80,0.00,,---,0.00,VWS V14.00,2013-05-31 05:25:00,
2013-05-31 01:26:00,73.1,66.9,30.02,ENE,66,0.0,0.0,81,0.00,,---,0.00,VWS V14.00,2013-05-31 05:26:00,
2013-05-31 01:30:00,73.1,66.9,30.02,ENE,65,0.0,0.0,81,0.00,,---,0.00,VWS V14.00,2013-05-31 05:30:00,
2013-05-31 01:31:00,73.1,66.9,30.02,ENE,65,0.0,0.0,81,0.00,,---,0.00,VWS V14.00,2013-05-31 05:31:00,
2013-05-31 01:35:00,73.0,66.8,30.02,ENE,65,0.0,0.0,81,0.00,,---,0.00,VWS V14.00,2013-05-31 05:35:00,
2013-05-31 01:36:00,73.0,66.8,30.02,ENE,65,0.0,0.0,81,0.00,,---,0.00,VWS V14.00,2013-05-31 05:36:00,
2013-05-31 01:40:00,72.9,66.7,30.02,ENE,65,0.0,0.0,81,0.00,,---,0.00,VWS V14.00,2013-05-31 05:40:00,
2013-05-31 01:41:00,72.9,66.7,30.02,ENE,65,0.0,0.0,81,0.00,,---,0.00,VWS V14.00,2013-05-31 05:41:00,
2013-05-31 01:45:00,72.8,66.6,30.02,ENE,65,0.0,0.0,81,0.00,,---,0.00,VWS V14.00,2013-05-31 05:45:00,
2013-05-31 01:46:00,72.8,66.6,30.02,ENE,65,0.0,0.0,81,0.00,,---,0.00,VWS V14.00,2013-05-31 05:46:00,
2013-05-31 01:50:00,72.7,66.5,30.02,ENE,65,0.0,0.0,81,0.00,,---,0.00,VWS V14.00,2013-05-31 05:50:00,
2013-05-31 01:51:00,72.6,66.4,30.02,ENE,65,0.0,0.0,81,0.00,,---,0.00,VWS V14.00,2013-05-31 05:51:00,
2013-05-31 01:55:00,72.6,66.4,30.02,ENE,65,0.0,0.0,81,0.00,,---,0.00,VWS V14.00,2013-05-31 05:55:00,
2013-05-31 01:56:00,72.6,66.4,30.02,ENE,65,0.0,0.0,81,0.00,,---,0.00,VWS V14.00,2013-05-31 05:56:00,
2013-05-31 02:00:00,72.6,66.4,30.01,ENE,65,0.0,2.0,81,0.00,,---,0.00,VWS V14.00,2013-05-31 06:00:00,
2013-05-31 02:01:00,72.5,66.3,30.01,ENE,65,0.0,0.0,81,0.00,,---,0.00,VWS V14.00,2013-05-31 06:01:00,
2013-05-31 02:05:00,72.5,66.3,30.01,ENE,65,0.0,4.0,81,0.00,,---,0.00,VWS V14.00,2013-05-31 06:05:00,
2013-05-31 02:06:00,72.5,66.3,30.01,ENE,65,1.0,6.0,81,0.00,,---,0.00,VWS V14.00,2013-05-31 06:06:00,
2013-05-31 02:10:00,72.5,66.3,30.00,ENE,65,3.0,6.0,81,0.00,,---,0.00,VWS V14.00,2013-05-31 06:10:00,
2013-05-31 02:11:00,72.5,66.3,30.00,ENE,64,1.0,6.0,81,0.00,,---,0.00,VWS V14.00,2013-05-31 06:11:00,
2013-05-31 02:15:00,72.5,66.7,30.00,ENE,60,0.0,6.0,82,0.00,,---,0.00,VWS V14.00,2013-05-31 06:15:00,
2013-05-31 02:16:00,72.4,66.6,30.00,ENE,59,3.0,5.0,82,0.00,,---,0.00,VWS V14.00,2013-05-31 06:16:00,
2013-05-31 02:20:00,72.4,66.6,30.00,ENE,59,1.0,5.0,82,0.00,,---,0.00,VWS V14.00,2013-05-31 06:20:00,
2013-05-31 02:21:00,72.4,66.6,30.00,ENE,59,0.0,1.0,82,0.00,,---,0.00,VWS V14.00,2013-05-31 06:21:00,
2013-05-31 02:25:00,72.4,66.6,30.00,ENE,59,0.0,1.0,82,0.00,,---,0.00,VWS V14.00,2013-05-31 06:25:00,
2013-05-31 02:26:00,72.4,66.6,30.00,ENE,59,2.0,2.0,82,0.00,,---,0.00,VWS V14.00,2013-05-31 06:26:00,
2013-05-31 02:30:00,72.4,66.6,30.01,ENE,59,0.0,2.0,82,0.00,,---,0.00,VWS V14.00,2013-05-31 06:30:00,
2013-05-31 02:31:00,72.4,66.6,30.01,ENE,59,1.0,5.0,82,0.00,,---,0.00,VWS V14.00,2013-05-31 06:31:00,
2013-05-31 02:35:00,72.3,66.5,30.01,ENE,59,0.0,5.0,82,0.00,,---,0.00,VWS V14.00,2013-05-31 06:35:00,
2013-05-31 02:36:00,72.3,66.5,30.01,ENE,59,1.0,3.0,82,0.00,,---,0.00,VWS V14.00,2013-05-31 06:36:00,
2013-05-31 02:40:00,72.2,66.4,30.01,ENE,59,0.0,3.0,82,0.00,,---,0.00,VWS V14.00,2013-05-31 06:40:00,
2013-05-31 02:41:00,72.2,66.4,30.00,ENE,59,0.0,0.0,82,0.00,,---,0.00,VWS V14.00,2013-05-31 06:41:00,
2013-05-31 02:45:00,72.1,66.3,30.00,ENE,59,0.0,4.0,82,0.00,,---,0.00,VWS V14.00,2013-05-31 06:45:00,
2013-05-31 02:46:00,72.0,66.2,30.00,ENE,59,0.0,0.0,82,0.00,,---,0.00,VWS V14.00,2013-05-31 06:46:00,
2013-05-31 02:50:00,72.0,66.2,30.00,ENE,59,0.0,2.0,82,0.00,,---,0.00,VWS V14.00,2013-05-31 06:50:00,
2013-05-31 02:51:00,71.9,66.5,30.00,ENE,59,0.0,0.0,83,0.00,,---,0.00,VWS V14.00,2013-05-31 06:51:00,
2013-05-31 02:55:00,71.9,66.5,30.00,ENE,59,0.0,2.0,83,0.00,,---,0.00,VWS V14.00,2013-05-31 06:55:00,
2013-05-31 02:56:00,71.8,66.4,29.99,ENE,59,0.0,0.0,83,0.00,,---,0.00,VWS V14.00,2013-05-31 06:56:00,
2013-05-31 03:00:00,71.8,66.4,29.99,ENE,59,4.0,5.0,83,0.00,,---,0.00,VWS V14.00,2013-05-31 07:00:00,
2013-05-31 03:01:00,71.8,66.4,29.99,ENE,59,0.0,4.0,83,0.00,,---,0.00,VWS V14.00,2013-05-31 07:01:00,
2013-05-31 03:05:00,71.8,66.4,29.99,ENE,59,2.0,5.0,83,0.00,,---,0.00,VWS V14.00,2013-05-31 07:05:00,
2013-05-31 03:06:00,71.7,66.6,29.99,NE,51,6.0,6.0,84,0.00,,---,0.00,VWS V14.00,2013-05-31 07:06:00,
2013-05-31 03:10:00,71.8,66.7,29.99,NE,55,5.0,7.0,84,0.00,,---,0.00,VWS V14.00,2013-05-31 07:10:00,
2013-05-31 03:11:00,71.8,66.7,29.99,NE,56,2.0,5.0,84,0.00,,---,0.00,VWS V14.00,2013-05-31 07:11:00,
2013-05-31 03:15:00,71.9,66.8,29.99,NE,55,6.0,6.0,84,0.00,,---,0.00,VWS V14.00,2013-05-31 07:15:00,
2013-05-31 03:16:00,71.8,66.7,29.99,ENE,61,3.0,6.0,84,0.00,,---,0.00,VWS V14.00,2013-05-31 07:16:00,
2013-05-31 03:20:00,71.9,66.8,29.98,ENE,62,2.0,6.0,84,0.00,,---,0.00,VWS V14.00,2013-05-31 07:20:00,
2013-05-31 03:21:00,71.9,66.8,29.98,NE,42,8.0,8.0,84,0.00,,---,0.00,VWS V14.00,2013-05-31 07:21:00,
2013-05-31 03:25:00,71.9,66.8,29.98,ENE,70,0.0,9.0,84,0.00,,---,0.00,VWS V14.00,2013-05-31 07:25:00,
2013-05-31 03:26:00,71.9,66.8,29.98,ENE,70,0.0,0.0,84,0.00,,---,0.00,VWS V14.00,2013-05-31 07:26:00,
2013-05-31 03:30:00,72.0,66.9,29.99,ENE,69,4.0,5.0,84,0.00,,---,0.00,VWS V14.00,2013-05-31 07:30:00,
2013-05-31 03:31:00,71.9,66.8,29.98,ENE,72,4.0,6.0,84,0.00,,---,0.00,VWS V14.00,2013-05-31 07:31:00,
2013-05-31 03:35:00,72.0,66.9,29.98,ENE,72,2.0,6.0,84,0.00,,---,0.00,VWS V14.00,2013-05-31 07:35:00,
2013-05-31 03:36:00,72.0,66.9,29.98,ENE,73,2.0,5.0,84,0.00,,---,0.00,VWS V14.00,2013-05-31 07:36:00,
2013-05-31 03:40:00,72.0,66.9,29.98,ENE,75,4.0,7.0,84,0.00,,---,0.00,VWS V14.00,2013-05-31 07:40:00,
2013-05-31 03:41:00,72.0,66.9,29.99,ENE,75,3.0,5.0,84,0.00,,---,0.00,VWS V14.00,2013-05-31 07:41:00,
2013-05-31 03:45:00,72.0,66.9,29.99,ENE,74,0.0,5.0,84,0.00,,---,0.00,VWS V14.00,2013-05-31 07:45:00,
2013-05-31 03:46:00,72.0,66.9,29.99,ENE,70,5.0,6.0,84,0.00,,---,0.00,VWS V14.00,2013-05-31 07:46:00,
2013-05-31 03:50:00,72.0,66.9,29.98,ENE,70,0.0,6.0,84,0.00,,---,0.00,VWS V14.00,2013-05-31 07:50:00,
2013-05-31 03:51:00,72.0,66.9,29.98,ENE,70,4.0,6.0,84,0.00,,---,0.00,VWS V14.00,2013-05-31 07:51:00,
2013-05-31 03:55:00,72.0,66.9,29.99,ENE,68,4.0,6.0,84,0.00,,---,0.00,VWS V14.00,2013-05-31 07:55:00,
2013-05-31 03:56:00,72.0,66.9,29.99,ENE,67,2.0,5.0,84,0.00,,---,0.00,VWS V14.00,2013-05-31 07:56:00,
2013-05-31 04:00:00,72.0,66.9,29.99,ENE,67,5.0,5.0,84,0.00,,---,0.00,VWS V14.00,2013-05-31 08:00:00,
2013-05-31 04:01:00,72.0,66.9,29.99,ENE,68,2.0,5.0,84,0.00,,---,0.00,VWS V14.00,2013-05-31 08:01:00,
2013-05-31 04:05:00,72.0,66.9,29.99,ENE,71,3.0,6.0,84,0.00,,---,0.00,VWS V14.00,2013-05-31 08:05:00,
2013-05-31 04:06:00,72.0,66.9,29.99,ENE,72,0.0,4.0,84,0.00,,---,0.00,VWS V14.00,2013-05-31 08:06:00,
2013-05-31 04:10:00,72.0,67.2,29.99,ENE,69,0.0,7.0,85,0.00,,---,0.00,VWS V14.00,2013-05-31 08:10:00,
2013-05-31 04:11:00,72.1,67.3,29.99,ENE,67,2.0,6.0,85,0.00,,---,0.00,VWS V14.00,2013-05-31 08:11:00,
2013-05-31 04:15:00,72.1,67.3,29.99,ENE,67,0.0,6.0,85,0.00,,---,0.00,VWS V14.00,2013-05-31 08:15:00,
2013-05-31 04:16:00,72.1,67.3,29.99,ENE,67,3.0,4.0,85,0.00,,---,0.00,VWS V14.00,2013-05-31 08:16:00,
2013-05-31 04:20:00,72.1,67.3,30.00,ENE,67,4.0,6.0,85,0.00,,---,0.00,VWS V14.00,2013-05-31 08:20:00,
2013-05-31 04:21:00,72.1,67.3,30.00,ENE,67,1.0,5.0,85,0.00,,---,0.00,VWS V14.00,2013-05-31 08:21:00,
2013-05-31 04:25:00,72.1,67.3,30.00,ENE,67,0.0,5.0,85,0.00,,---,0.00,VWS V14.00,2013-05-31 08:25:00,
2013-05-31 04:26:00,72.0,67.2,30.00,ENE,67,0.0,0.0,85,0.00,,---,0.00,VWS V14.00,2013-05-31 08:26:00,
2013-05-31 04:30:00,72.0,67.2,30.00,ENE,67,4.0,4.0,85,0.00,,---,0.00,VWS V14.00,2013-05-31 08:30:00,
2013-05-31 04:31:00,72.0,67.2,30.00,ENE,67,0.0,4.0,85,0.00,,---,0.00,VWS V14.00,2013-05-31 08:31:00,
2013-05-31 04:35:00,72.0,67.2,30.00,ENE,67,4.0,4.0,85,0.00,,---,0.00,VWS V14.00,2013-05-31 08:35:00,
2013-05-31 04:36:00,72.0,67.2,29.99,ENE,67,0.0,5.0,85,0.00,,---,0.00,VWS V14.00,2013-05-31 08:36:00,
2013-05-31 04:40:00,72.0,67.2,30.00,ENE,67,3.0,5.0,85,0.00,,---,0.00,VWS V14.00,2013-05-31 08:40:00,
2013-05-31 04:41:00,72.0,67.2,30.00,ENE,67,0.0,6.0,85,0.00,,---,0.00,VWS V14.00,2013-05-31 08:41:00,
2013-05-31 04:45:00,72.0,67.2,30.00,ENE,67,0.0,6.0,85,0.00,,---,0.00,VWS V14.00,2013-05-31 08:45:00,
2013-05-31 04:46:00,72.0,67.2,30.00,ENE,67,5.0,6.0,85,0.00,,---,0.00,VWS V14.00,2013-05-31 08:46:00,
2013-05-31 04:50:00,72.0,67.6,30.00,ENE,66,1.0,7.0,86,0.00,,---,0.00,VWS V14.00,2013-05-31 08:50:00,
2013-05-31 04:51:00,72.1,67.7,30.00,ENE,66,0.0,3.0,86,0.00,,---,0.00,VWS V14.00,2013-05-31 08:51:00,
2013-05-31 04:55:00,72.0,67.6,29.99,ENE,66,1.0,3.0,86,0.00,,---,0.00,VWS V14.00,2013-05-31 08:55:00,
2013-05-31 04:56:00,72.1,67.7,29.99,ENE,65,4.0,6.0,86,0.00,,---,0.00,VWS V14.00,2013-05-31 08:56:00,
2013-05-31 05:00:00,72.1,67.7,30.00,ENE,65,0.0,6.0,86,0.00,,---,0.00,VWS V14.00,2013-05-31 09:00:00,
2013-05-31 05:01:00,72.1,67.7,29.99,ENE,65,0.0,0.0,86,0.00,,---,0.00,VWS V14.00,2013-05-31 09:01:00,
2013-05-31 05:05:00,72.1,67.7,29.99,ENE,65,3.0,5.0,86,0.00,,---,0.00,VWS V14.00,2013-05-31 09:05:00,
2013-05-31 05:06:00,72.1,67.7,29.99,ENE,64,1.0,7.0,86,0.00,,---,0.00,VWS V14.00,2013-05-31 09:06:00,
2013-05-31 05:10:00,72.1,67.7,29.99,ENE,69,5.0,7.0,86,0.00,,---,0.00,VWS V14.00,2013-05-31 09:10:00,
2013-05-31 05:11:00,72.1,67.7,29.99,ENE,71,5.0,8.0,86,0.00,,---,0.00,VWS V14.00,2013-05-31 09:11:00,
2013-05-31 05:15:00,72.2,67.8,29.99,ENE,69,5.0,8.0,86,0.00,,---,0.00,VWS V14.00,2013-05-31 09:15:00,
2013-05-31 05:16:00,72.2,67.8,29.98,East,92,4.0,6.0,86,0.00,,---,0.00,VWS V14.00,2013-05-31 09:16:00,
2013-05-31 05:20:00,72.1,67.7,29.98,East,83,6.0,9.0,86,0.00,,---,0.00,VWS V14.00,2013-05-31 09:20:00,
2013-05-31 05:21:00,72.1,67.7,29.98,ENE,78,4.0,8.0,86,0.00,,---,0.00,VWS V14.00,2013-05-31 09:21:00,
2013-05-31 05:25:00,72.1,67.7,29.98,East,88,2.0,8.0,86,0.00,,---,0.00,VWS V14.00,2013-05-31 09:25:00,
2013-05-31 05:26:00,72.1,67.7,29.98,East,82,5.0,5.0,86,0.00,,---,0.00,VWS V14.00,2013-05-31 09:26:00,
2013-05-31 05:30:00,72.1,67.7,29.98,East,88,2.0,6.0,86,0.00,,---,0.00,VWS V14.00,2013-05-31 09:30:00,
2013-05-31 05:31:00,72.1,67.7,29.98,East,85,1.0,5.0,86,0.00,,---,0.00,VWS V14.00,2013-05-31 09:31:00,
2013-05-31 05:35:00,72.1,67.7,29.98,East,88,4.0,7.0,86,0.00,,---,0.00,VWS V14.00,2013-05-31 09:35:00,
2013-05-31 05:36:00,72.1,67.7,29.98,East,80,4.0,7.0,86,0.00,,---,0.00,VWS V14.00,2013-05-31 09:36:00,
2013-05-31 05:40:00,72.1,67.7,29.98,East,86,5.0,7.0,86,0.00,,---,0.00,VWS V14.00,2013-05-31 09:40:00,
2013-05-31 05:41:00,72.1,67.7,29.98,East,84,0.0,6.0,86,0.00,,---,0.00,VWS V14.00,2013-05-31 09:41:00,
2013-05-31 05:45:00,72.1,67.7,29.98,East,92,2.0,7.0,86,0.00,,---,0.00,VWS V14.00,2013-05-31 09:45:00,
2013-05-31 05:46:00,72.1,67.7,29.98,East,92,5.0,5.0,86,0.00,,---,0.00,VWS V14.00,2013-05-31 09:46:00,
2013-05-31 05:50:00,72.1,67.7,29.97,East,97,1.0,6.0,86,0.00,,---,0.00,VWS V14.00,2013-05-31 09:50:00,
2013-05-31 05:51:00,72.1,68.0,29.97,East,91,3.0,8.0,87,0.00,,---,0.00,VWS V14.00,2013-05-31 09:51:00,
2013-05-31 05:55:00,72.1,68.0,29.97,ESE,103,6.0,8.0,87,0.00,,---,0.00,VWS V14.00,2013-05-31 09:55:00,
2013-05-31 05:56:00,72.1,68.0,29.98,East,86,6.0,6.0,87,0.00,,---,0.00,VWS V14.00,2013-05-31 09:56:00,
2013-05-31 06:00:00,72.1,68.0,29.98,NE,46,1.0,7.0,87,0.00,,---,0.00,VWS V14.00,2013-05-31 10:00:00,
2013-05-31 06:01:00,72.1,68.0,29.98,East,81,5.0,5.0,87,0.00,,---,0.00,VWS V14.00,2013-05-31 10:01:00,
2013-05-31 06:05:00,72.1,68.0,29.98,East,80,4.0,7.0,87,0.00,,---,0.00,VWS V14.00,2013-05-31 10:05:00,
2013-05-31 06:06:00,72.1,68.0,29.98,ENE,66,2.0,9.0,87,0.00,,---,0.00,VWS V14.00,2013-05-31 10:06:00,
2013-05-31 06:10:00,72.1,68.0,29.98,ENE,69,0.0,9.0,87,0.00,,---,0.00,VWS V14.00,2013-05-31 10:10:00,
2013-05-31 06:11:00,72.1,68.0,29.97,East,86,3.0,7.0,87,0.00,,---,0.00,VWS V14.00,2013-05-31 10:11:00,
2013-05-31 06:15:00,72.1,68.0,29.97,ESE,109,3.0,9.0,87,0.00,,---,0.00,VWS V14.00,2013-05-31 10:15:00,
2013-05-31 06:16:00,72.1,68.0,29.97,East,97,2.0,8.0,87,0.00,,---,0.00,VWS V14.00,2013-05-31 10:16:00,
2013-05-31 06:20:00,72.2,68.1,29.98,East,93,1.0,8.0,87,0.00,,---,0.00,VWS V14.00,2013-05-31 10:20:00,
2013-05-31 06:21:00,72.2,68.1,29.98,East,87,1.0,6.0,87,0.00,,---,0.00,VWS V14.00,2013-05-31 10:21:00,
2013-05-31 06:25:00,72.2,68.1,29.98,East,93,0.0,6.0,87,0.00,,---,0.00,VWS V14.00,2013-05-31 10:25:00,
2013-05-31 06:26:00,72.2,68.1,29.99,East,94,2.0,2.0,87,0.00,,---,0.00,VWS V14.00,2013-05-31 10:26:00,
2013-05-31 06:30:00,72.2,68.1,29.99,ESE,114,0.0,5.0,87,0.00,,---,0.00,VWS V14.00,2013-05-31 10:30:00,
2013-05-31 06:31:00,72.3,68.2,29.99,East,96,2.0,6.0,87,0.00,,---,0.00,VWS V14.00,2013-05-31 10:31:00,
2013-05-31 06:35:00,72.3,68.2,29.99,East,83,1.0,6.0,87,0.00,,---,0.00,VWS V14.00,2013-05-31 10:35:00,
2013-05-31 06:36:00,72.4,68.3,30.00,East,83,0.0,1.0,87,0.00,,---,0.00,VWS V14.00,2013-05-31 10:36:00,
2013-05-31 06:40:00,72.4,68.3,30.00,East,82,0.0,1.0,87,0.00,,---,0.00,VWS V14.00,2013-05-31 10:40:00,
2013-05-31 06:41:00,72.4,68.3,30.00,East,82,1.0,4.0,87,0.00,,---,0.00,VWS V14.00,2013-05-31 10:41:00,
2013-05-31 06:45:00,72.4,68.3,30.00,East,82,2.0,5.0,87,0.00,,---,0.00,VWS V14.00,2013-05-31 10:45:00,
2013-05-31 06:46:00,72.5,68.4,30.00,East,82,2.0,5.0,87,0.00,,---,0.00,VWS V14.00,2013-05-31 10:46:00,
2013-05-31 06:50:00,72.6,68.5,30.00,East,82,0.0,5.0,87,0.00,,---,0.00,VWS V14.00,2013-05-31 10:50:00,
2013-05-31 06:51:00,72.6,68.5,30.00,East,82,2.0,4.0,87,0.00,,---,0.00,VWS V14.00,2013-05-31 10:51:00,
2013-05-31 06:55:00,72.7,68.6,30.00,East,79,2.0,6.0,87,0.00,,---,0.00,VWS V14.00,2013-05-31 10:55:00,
2013-05-31 06:56:00,72.8,68.4,30.00,ENE,78,4.0,6.0,86,0.00,,---,0.00,VWS V14.00,2013-05-31 10:56:00,
2013-05-31 07:00:00,72.8,68.4,30.00,ENE,77,0.0,6.0,86,0.00,,---,0.00,VWS V14.00,2013-05-31 11:00:00,
2013-05-31 07:01:00,72.9,68.5,30.00,ENE,77,2.0,5.0,86,0.00,,---,0.00,VWS V14.00,2013-05-31 11:01:00,
2013-05-31 07:05:00,73.0,68.6,30.00,ENE,77,0.0,6.0,86,0.00,,---,0.00,VWS V14.00,2013-05-31 11:05:00,
2013-05-31 07:06:00,73.1,68.7,30.01,ENE,77,0.0,0.0,86,0.00,,---,0.00,VWS V14.00,2013-05-31 11:06:00,
2013-05-31 07:10:00,73.2,68.4,30.00,ENE,77,2.0,2.0,85,0.00,,---,0.00,VWS V14.00,2013-05-31 11:10:00,
2013-05-31 07:11:00,73.3,68.5,30.00,ENE,77,5.0,5.0,85,0.00,,---,0.00,VWS V14.00,2013-05-31 11:11:00,
2013-05-31 07:15:00,73.3,68.5,30.00,ENE,77,0.0,5.0,85,0.00,,---,0.00,VWS V14.00,2013-05-31 11:15:00,
2013-05-31 07:16:00,73.3,68.5,30.01,ENE,77,1.0,4.0,85,0.00,,---,0.00,VWS V14.00,2013-05-31 11:16:00,
2013-05-31 07:20:00,73.4,68.6,30.01,ENE,76,0.0,5.0,85,0.00,,---,0.00,VWS V14.00,2013-05-31 11:20:00,
2013-05-31 07:21:00,73.4,68.6,30.01,ENE,78,0.0,5.0,85,0.00,,---,0.00,VWS V14.00,2013-05-31 11:21:00,
2013-05-31 07:25:00,73.6,68.8,30.01,ENE,59,3.0,5.0,85,0.00,,---,0.00,VWS V14.00,2013-05-31 11:25:00,
2013-05-31 07:26:00,73.7,68.9,30.01,ENE,66,0.0,6.0,85,0.00,,---,0.00,VWS V14.00,2013-05-31 11:26:00,
2013-05-31 07:30:00,73.9,68.8,30.01,ENE,78,4.0,6.0,84,0.00,,---,0.00,VWS V14.00,2013-05-31 11:30:00,
2013-05-31 07:31:00,74.0,68.9,30.01,ENE,69,1.0,6.0,84,0.00,,---,0.00,VWS V14.00,2013-05-31 11:31:00,
2013-05-31 07:35:00,74.2,69.1,30.01,ENE,69,3.0,6.0,84,0.00,,---,0.00,VWS V14.00,2013-05-31 11:35:00,
2013-05-31 07:36:00,74.3,69.2,30.01,ENE,75,4.0,9.0,84,0.00,,---,0.01,VWS V14.00,2013-05-31 11:36:00,
2013-05-31 07:40:00,74.4,68.9,30.02,ENE,76,0.0,9.0,83,0.00,,---,0.01,VWS V14.00,2013-05-31 11:40:00,
2013-05-31 07:41:00,74.6,69.1,30.02,ENE,74,1.0,5.0,83,0.00,,---,0.01,VWS V14.00,2013-05-31 11:41:00,
2013-05-31 07:45:00,74.8,69.3,30.02,ENE,74,5.0,7.0,83,0.00,,---,0.01,VWS V14.00,2013-05-31 11:45:00,
2013-05-31 07:46:00,74.8,68.9,30.02,ENE,65,5.0,8.0,82,0.00,,---,0.01,VWS V14.00,2013-05-31 11:46:00,
2013-05-31 07:50:00,74.9,69.0,30.02,ENE,66,2.0,8.0,82,0.00,,---,0.01,VWS V14.00,2013-05-31 11:50:00,
2013-05-31 07:51:00,75.0,69.1,30.02,ENE,69,0.0,6.0,82,0.00,,---,0.01,VWS V14.00,2013-05-31 11:51:00,
2013-05-31 07:55:00,75.1,69.2,30.02,ENE,76,4.0,6.0,82,0.00,,---,0.01,VWS V14.00,2013-05-31 11:55:00,
2013-05-31 07:56:00,75.2,69.3,30.02,ENE,74,6.0,6.0,82,0.00,,---,0.01,VWS V14.00,2013-05-31 11:56:00,
2013-05-31 08:00:00,75.3,69.1,30.02,ENE,64,2.0,7.0,81,0.00,,---,0.01,VWS V14.00,2013-05-31 12:00:00,
2013-05-31 08:01:00,75.4,69.2,30.02,East,82,6.0,7.0,81,0.00,,---,0.01,VWS V14.00,2013-05-31 12:01:00,
2013-05-31 08:05:00,75.5,69.3,30.02,East,83,6.0,9.0,81,0.00,,---,0.01,VWS V14.00,2013-05-31 12:05:00,
2013-05-31 08:06:00,75.5,68.9,30.02,ENE,78,2.0,7.0,80,0.00,,---,0.01,VWS V14.00,2013-05-31 12:06:00,
2013-05-31 08:10:00,75.6,69.0,30.02,East,94,1.0,9.0,80,0.00,,---,0.01,VWS V14.00,2013-05-31 12:10:00,
2013-05-31 08:11:00,75.7,69.1,30.02,East,84,2.0,7.0,80,0.00,,---,0.01,VWS V14.00,2013-05-31 12:11:00,
2013-05-31 08:15:00,76.0,69.4,30.02,East,93,2.0,7.0,80,0.00,,---,0.01,VWS V14.00,2013-05-31 12:15:00,
2013-05-31 08:16:00,76.2,69.6,30.02,East,96,4.0,7.0,80,0.00,,---,0.01,VWS V14.00,2013-05-31 12:16:00,
2013-05-31 08:20:00,76.6,69.2,30.02,East,89,8.0,9.0,78,0.00,,---,0.01,VWS V14.00,2013-05-31 12:20:00,
2013-05-31 08:21:00,76.9,69.5,30.02,NE,46,5.0,9.0,78,0.00,,---,0.01,VWS V14.00,2013-05-31 12:21:00,
2013-05-31 08:25:00,77.3,69.5,30.02,East,87,1.0,9.0,77,0.00,,---,0.01,VWS V14.00,2013-05-31 12:25:00,
2013-05-31 08:26:00,77.6,69.8,30.02,East,82,2.0,7.0,77,0.00,,---,0.01,VWS V14.00,2013-05-31 12:26:00,
2013-05-31 08:30:00,78.0,69.8,30.02,ENE,63,6.0,8.0,76,0.00,,---,0.01,VWS V14.00,2013-05-31 12:30:00,
2013-05-31 08:31:00,78.3,70.1,30.02,ENE,61,5.0,9.0,76,0.00,,---,0.01,VWS V14.00,2013-05-31 12:31:00,
2013-05-31 08:35:00,78.5,69.9,30.02,East,85,5.0,9.0,75,0.00,,---,0.01,VWS V14.00,2013-05-31 12:35:00,
2013-05-31 08:36:00,78.7,69.7,30.03,ENE,69,7.0,8.0,74,0.00,,---,0.01,VWS V14.00,2013-05-31 12:36:00,
2013-05-31 08:40:00,78.9,70.3,30.03,NE,52,9.0,9.0,75,0.00,,---,0.01,VWS V14.00,2013-05-31 12:40:00,
2013-05-31 08:41:00,79.1,70.1,30.02,ENE,74,4.0,9.0,74,0.00,,---,0.01,VWS V14.00,2013-05-31 12:41:00,
2013-05-31 08:45:00,79.5,70.5,30.02,East,83,4.0,9.0,74,0.00,,---,0.01,VWS V14.00,2013-05-31 12:45:00,
2013-05-31 08:46:00,79.8,70.4,30.02,East,88,6.0,11.0,73,0.00,,---,0.01,VWS V14.00,2013-05-31 12:46:00,
2013-05-31 08:50:00,80.0,70.2,30.02,ENE,61,5.0,11.0,72,0.00,,---,0.01,VWS V14.00,2013-05-31 12:50:00,
2013-05-31 08:51:00,80.0,70.2,30.02,East,82,8.0,9.0,72,0.00,,---,0.01,VWS V14.00,2013-05-31 12:51:00,
2013-05-31 08:55:00,80.1,70.3,30.02,East,96,5.0,9.0,72,0.00,,---,0.01,VWS V14.00,2013-05-31 12:55:00,
2013-05-31 08:56:00,80.3,70.5,30.03,ENE,77,8.0,9.0,72,0.00,,---,0.01,VWS V14.00,2013-05-31 12:56:00,
2013-05-31 09:00:00,80.5,70.2,30.02,ESE,117,7.0,12.0,71,0.00,,---,0.01,VWS V14.00,2013-05-31 13:00:00,
2013-05-31 09:01:00,80.5,70.2,30.03,ESE,123,1.0,7.0,71,0.00,,---,0.01,VWS V14.00,2013-05-31 13:01:00,
2013-05-31 09:05:00,80.5,70.7,30.03,ENE,67,8.0,8.0,72,0.00,,---,0.01,VWS V14.00,2013-05-31 13:05:00,
2013-05-31 09:06:00,80.7,70.4,30.02,NE,52,4.0,12.0,71,0.00,,---,0.01,VWS V14.00,2013-05-31 13:06:00,
2013-05-31 09:10:00,80.9,70.6,30.02,ESE,103,3.0,12.0,71,0.00,,---,0.01,VWS V14.00,2013-05-31 13:10:00,
2013-05-31 09:11:00,80.9,70.6,30.02,ENE,74,8.0,9.0,71,0.00,,---,0.01,VWS V14.00,2013-05-31 13:11:00,
2013-05-31 09:15:00,81.0,70.7,30.02,ESE,105,5.0,9.0,71,0.00,,---,0.01,VWS V14.00,2013-05-31 13:15:00,
2013-05-31 09:16:00,81.0,70.3,30.02,East,86,5.0,7.0,70,0.00,,---,0.01,VWS V14.00,2013-05-31 13:16:00,
2013-05-31 09:20:00,80.9,70.6,30.02,ENE,74,5.0,11.0,71,0.00,,---,0.01,VWS V14.00,2013-05-31 13:20:00,
2013-05-31 09:21:00,80.8,70.5,30.02,East,97,10.0,10.0,71,0.00,,---,0.01,VWS V14.00,2013-05-31 13:21:00,
2013-05-31 09:25:00,80.7,70.4,30.02,East,92,2.0,11.0,71,0.00,,---,0.01,VWS V14.00,2013-05-31 13:25:00,
2013-05-31 09:26:00,80.7,70.4,30.02,East,85,1.0,7.0,71,0.00,,---,0.01,VWS V14.00,2013-05-31 13:26:00,
2013-05-31 09:30:00,80.8,70.9,30.02,ENE,65,9.0,14.0,72,0.00,,---,0.01,VWS V14.00,2013-05-31 13:30:00,
2013-05-31 09:31:00,80.9,70.6,30.02,East,88,7.0,12.0,71,0.00,,---,0.01,VWS V14.00,2013-05-31 13:31:00,
2013-05-31 09:35:00,81.2,70.5,30.02,ENE,58,6.0,12.0,70,0.00,,---,0.01,VWS V14.00,2013-05-31 13:35:00,
2013-05-31 09:36:00,81.2,70.9,30.02,ENE,74,7.0,8.0,71,0.00,,---,0.01,VWS V14.00,2013-05-31 13:36:00,
2013-05-31 09:40:00,81.4,70.7,30.02,East,82,5.0,8.0,70,0.00,,---,0.01,VWS V14.00,2013-05-31 13:40:00,
2013-05-31 09:41:00,81.6,70.9,30.02,ESE,104,5.0,7.0,70,0.00,,---,0.01,VWS V14.00,2013-05-31 13:41:00,
2013-05-31 09:45:00,81.6,70.9,30.02,SE,125,4.0,11.0,70,0.00,,---,0.01,VWS V14.00,2013-05-31 13:45:00,
2013-05-31 09:46:00,81.4,70.3,30.02,East,87,5.0,11.0,69,0.00,,---,0.01,VWS V14.00,2013-05-31 13:46:00,
2013-05-31 09:50:00,81.6,70.9,30.02,East,79,4.0,11.0,70,0.00,,---,0.01,VWS V14.00,2013-05-31 13:50:00,
2013-05-31 09:51:00,81.9,70.7,30.02,SE,130,4.0,8.0,69,0.00,,---,0.01,VWS V14.00,2013-05-31 13:51:00,
2013-05-31 09:55:00,82.0,70.4,30.02,ESE,116,14.0,14.0,68,0.00,,---,0.01,VWS V14.00,2013-05-31 13:55:00,
2013-05-31 09:56:00,82.1,70.5,30.02,SE,132,8.0,14.0,68,0.00,,---,0.01,VWS V14.00,2013-05-31 13:56:00,
2013-05-31 10:00:00,82.1,70.9,30.02,East,90,5.0,14.0,69,0.00,,---,0.01,VWS V14.00,2013-05-31 14:00:00,
2013-05-31 10:01:00,82.2,70.6,30.02,East,82,7.0,10.0,68,0.00,,---,0.01,VWS V14.00,2013-05-31 14:01:00,
2013-05-31 10:05:00,82.2,70.6,30.02,SE,126,9.0,10.0,68,0.00,,---,0.01,VWS V14.00,2013-05-31 14:05:00,
2013-05-31 10:06:00,82.0,70.8,30.02,SE,144,2.0,9.0,69,0.00,,---,0.01,VWS V14.00,2013-05-31 14:06:00,
2013-05-31 10:10:00,81.9,70.3,30.02,ENE,74,1.0,9.0,68,0.00,,---,0.01,VWS V14.00,2013-05-31 14:10:00,
2013-05-31 10:11:00,81.9,70.3,30.02,East,86,5.0,6.0,68,0.00,,---,0.01,VWS V14.00,2013-05-31 14:11:00,
2013-05-31 10:15:00,82.1,70.9,30.02,ESE,108,2.0,6.0,69,0.00,,---,0.01,VWS V14.00,2013-05-31 14:15:00,
2013-05-31 10:16:00,82.3,70.7,30.02,ENE,65,10.0,10.0,68,0.00,,---,0.01,VWS V14.00,2013-05-31 14:16:00,
2013-05-31 10:20:00,82.6,70.5,30.02,East,96,7.0,10.0,67,0.00,,---,0.01,VWS V14.00,2013-05-31 14:20:00,
2013-05-31 10:21:00,82.9,70.8,30.02,East,101,6.0,8.0,67,0.00,,---,0.01,VWS V14.00,2013-05-31 14:21:00,
2013-05-31 10:25:00,83.3,70.8,30.02,East,88,8.0,11.0,66,0.00,,---,0.01,VWS V14.00,2013-05-31 14:25:00,
2013-05-31 10:26:00,83.3,70.8,30.02,ENE,78,8.0,8.0,66,0.00,,---,0.01,VWS V14.00,2013-05-31 14:26:00,
2013-05-31 10:30:00,83.2,70.7,30.02,ENE,78,5.0,10.0,66,0.00,,---,0.01,VWS V14.00,2013-05-31 14:30:00,
2013-05-31 10:31:00,83.4,71.7,30.02,East,79,7.0,8.0,68,0.00,,---,0.01,VWS V14.00,2013-05-31 14:31:00,
2013-05-31 10:35:00,83.8,70.8,30.02,East,101,6.0,8.0,65,0.00,,---,0.01,VWS V14.00,2013-05-31 14:35:00,
2013-05-31 10:36:00,84.0,70.5,30.02,ESE,121,6.0,8.0,64,0.00,,---,0.01,VWS V14.00,2013-05-31 14:36:00,
2013-05-31 10:40:00,83.7,70.2,30.02,SE,126,4.0,8.0,64,0.00,,---,0.01,VWS V14.00,2013-05-31 14:40:00,
2013-05-31 10:41:00,83.4,69.9,30.02,SE,128,7.0,8.0,64,0.00,,---,0.01,VWS V14.00,2013-05-31 14:41:00,
2013-05-31 10:45:00,83.0,70.0,30.02,ESE,120,4.0,8.0,65,0.00,,---,0.01,VWS V14.00,2013-05-31 14:45:00,
2013-05-31 10:46:00,82.7,70.2,30.02,East,90,6.0,8.0,66,0.00,,---,0.01,VWS V14.00,2013-05-31 14:46:00,
2013-05-31 10:50:00,82.4,69.9,30.02,ESE,112,7.0,9.0,66,0.00,,---,0.01,VWS V14.00,2013-05-31 14:50:00,
2013-05-31 10:51:00,82.3,69.8,30.02,ENE,76,6.0,7.0,66,0.00,,---,0.01,VWS V14.00,2013-05-31 14:51:00,
2013-05-31 10:55:00,82.1,69.6,30.02,East,93,5.0,9.0,66,0.00,,---,0.01,VWS V14.00,2013-05-31 14:55:00,
2013-05-31 10:56:00,82.0,69.5,30.02,East,90,5.0,9.0,66,0.00,,---,0.01,VWS V14.00,2013-05-31 14:56:00,
2013-05-31 11:00:00,82.2,70.6,30.02,East,96,7.0,10.0,68,0.00,,---,0.01,VWS V14.00,2013-05-31 15:00:00,
2013-05-31 11:01:00,82.6,71.0,30.02,ESE,117,7.0,12.0,68,0.00,,---,0.01,VWS V14.00,2013-05-31 15:01:00,
2013-05-31 11:05:00,83.4,70.9,30.02,East,89,2.0,12.0,66,0.00,,---,0.01,VWS V14.00,2013-05-31 15:05:00,
2013-05-31 11:06:00,83.8,71.2,30.02,East,100,0.0,8.0,66,0.00,,---,0.01,VWS V14.00,2013-05-31 15:06:00,
2013-05-31 11:10:00,84.3,71.3,30.02,ESE,111,4.0,12.0,65,0.00,,---,0.01,VWS V14.00,2013-05-31 15:10:00,
2013-05-31 11:11:00,84.6,71.1,30.02,ESE,116,6.0,9.0,64,0.00,,---,0.01,VWS V14.00,2013-05-31 15:11:00,
2013-05-31 11:15:00,84.7,71.2,30.02,SE,140,3.0,9.0,64,0.00,,---,0.01,VWS V14.00,2013-05-31 15:15:00,
2013-05-31 11:16:00,84.7,71.2,30.02,ESE,122,6.0,8.0,64,0.00,,---,0.01,VWS V14.00,2013-05-31 15:16:00,
2013-05-31 11:20:00,84.8,71.3,30.02,SE,131,6.0,8.0,64,0.00,,---,0.01,VWS V14.00,2013-05-31 15:20:00,
2013-05-31 11:21:00,84.7,70.7,30.02,SE,133,5.0,10.0,63,0.00,,---,0.01,VWS V14.00,2013-05-31 15:21:00,
2013-05-31 11:25:00,84.5,70.5,30.01,ESE,107,2.0,10.0,63,0.00,,---,0.01,VWS V14.00,2013-05-31 15:25:00,
2013-05-31 11:26:00,84.2,70.7,30.02,SE,132,2.0,6.0,64,0.00,,---,0.01,VWS V14.00,2013-05-31 15:26:00,
2013-05-31 11:30:00,84.0,70.5,30.02,ESE,117,1.0,6.0,64,0.00,,---,0.01,VWS V14.00,2013-05-31 15:30:00,
2013-05-31 11:31:00,83.9,70.4,30.02,East,80,4.0,6.0,64,0.00,,---,0.01,VWS V14.00,2013-05-31 15:31:00,
2013-05-31 11:35:00,83.9,70.0,30.02,ENE,71,5.0,8.0,63,0.00,,---,0.01,VWS V14.00,2013-05-31 15:35:00,
2013-05-31 11:36:00,83.9,70.4,30.02,East,95,5.0,6.0,64,0.00,,---,0.01,VWS V14.00,2013-05-31 15:36:00,
2013-05-31 11:40:00,84.0,70.1,30.02,ESE,113,0.0,7.0,63,0.00,,---,0.01,VWS V14.00,2013-05-31 15:40:00,
2013-05-31 11:41:00,84.0,70.1,30.02,ESE,123,7.0,7.0,63,0.00,,---,0.01,VWS V14.00,2013-05-31 15:41:00,
2013-05-31 11:45:00,83.9,70.0,30.02,East,80,5.0,9.0,63,0.00,,---,0.01,VWS V14.00,2013-05-31 15:45:00,
2013-05-31 11:46:00,83.9,70.0,30.02,East,90,4.0,6.0,63,0.00,,---,0.01,VWS V14.00,2013-05-31 15:46:00,
2013-05-31 11:50:00,83.9,70.4,30.02,ESE,105,0.0,6.0,64,0.00,,---,0.01,VWS V14.00,2013-05-31 15:50:00,
2013-05-31 11:51:00,83.9,70.4,30.02,ESE,103,4.0,5.0,64,0.00,,---,0.01,VWS V14.00,2013-05-31 15:51:00,
2013-05-31 11:55:00,83.8,70.8,30.02,ESE,120,0.0,7.0,65,0.00,,---,0.01,VWS V14.00,2013-05-31 15:55:00,
2013-05-31 11:56:00,83.8,70.8,30.02,ESE,107,4.0,4.0,65,0.00,,---,0.01,VWS V14.00,2013-05-31 15:56:00,
2013-05-31 12:00:00,83.7,69.8,30.02,ENE,73,5.0,7.0,63,0.00,,---,0.01,VWS V14.00,2013-05-31 16:00:00,
2013-05-31 12:01:00,83.7,70.2,30.02,ENE,75,4.0,6.0,64,0.00,,---,0.01,VWS V14.00,2013-05-31 16:01:00,
2013-05-31 12:05:00,83.7,69.8,30.02,ENE,73,3.0,6.0,63,0.00,,---,0.01,VWS V14.00,2013-05-31 16:05:00,
2013-05-31 12:06:00,83.7,70.2,30.02,ENE,65,5.0,7.0,64,0.00,,---,0.01,VWS V14.00,2013-05-31 16:06:00,
2013-05-31 12:10:00,83.7,70.2,30.02,East,98,6.0,11.0,64,0.00,,---,0.01,VWS V14.00,2013-05-31 16:10:00,
2013-05-31 12:11:00,83.7,70.7,30.02,ESE,107,0.0,6.0,65,0.00,,---,0.01,VWS V14.00,2013-05-31 16:11:00,
2013-05-31 12:15:00,83.6,71.1,30.02,East,95,0.0,7.0,66,0.00,,---,0.01,VWS V14.00,2013-05-31 16:15:00,
2013-05-31 12:16:00,83.6,70.6,30.02,East,94,4.0,5.0,65,0.00,,---,0.01,VWS V14.00,2013-05-31 16:16:00,
2013-05-31 12:20:00,83.4,70.9,30.02,ENE,67,3.0,7.0,66,0.00,,---,0.01,VWS V14.00,2013-05-31 16:20:00,
2013-05-31 12:21:00,83.4,71.3,30.02,East,81,0.0,5.0,67,0.00,,---,0.01,VWS V14.00,2013-05-31 16:21:00,
2013-05-31 12:25:00,83.2,71.6,30.02,ESE,104,5.0,8.0,68,0.00,,---,0.01,VWS V14.00,2013-05-31 16:25:00,
2013-05-31 12:26:00,82.9,71.7,30.02,ESE,114,0.0,7.0,69,0.00,,---,0.01,VWS V14.00,2013-05-31 16:26:00,
2013-05-31 12:30:00,82.5,71.7,30.02,ESE,114,0.0,7.0,70,0.00,,---,0.01,VWS V14.00,2013-05-31 16:30:00,
2013-05-31 12:31:00,82.1,71.8,30.02,ESE,114,0.0,0.0,71,0.00,,---,0.01,VWS V14.00,2013-05-31 16:31:00,
2013-05-31 12:35:00,81.9,72.0,30.01,ESE,114,0.0,0.0,72,0.00,,---,0.01,VWS V14.00,2013-05-31 16:35:00,
2013-05-31 12:36:00,81.8,71.9,30.01,ESE,114,0.0,0.0,72,0.00,,---,0.01,VWS V14.00,2013-05-31 16:36:00,
2013-05-31 12:40:00,81.7,72.2,30.01,ESE,114,2.0,5.0,73,0.00,,---,0.01,VWS V14.00,2013-05-31 16:40:00,
2013-05-31 12:41:00,81.7,72.2,30.01,ESE,114,0.0,5.0,73,0.00,,---,0.01,VWS V14.00,2013-05-31 16:41:00,
2013-05-31 12:45:00,81.9,71.6,30.01,ESE,114,0.0,5.0,71,0.00,,---,0.01,VWS V14.00,2013-05-31 16:45:00,
2013-05-31 12:46:00,82.0,71.7,30.01,ESE,114,0.0,0.0,71,0.00,,---,0.01,VWS V14.00,2013-05-31 16:46:00,
2013-05-31 12:50:00,82.2,71.4,30.01,ESE,114,0.0,0.0,70,0.00,,---,0.01,VWS V14.00,2013-05-31 16:50:00,
2013-05-31 12:51:00,82.4,71.2,30.01,ENE,75,4.0,9.0,69,0.00,,---,0.01,VWS V14.00,2013-05-31 16:51:00,
2013-05-31 12:55:00,83.0,70.5,30.01,East,84,10.0,10.0,66,0.00,,---,0.01,VWS V14.00,2013-05-31 16:55:00,
2013-05-31 12:56:00,83.6,71.1,30.01,ESE,103,7.0,10.0,66,0.00,,---,0.01,VWS V14.00,2013-05-31 16:56:00,
2013-05-31 13:00:00,84.7,71.6,30.01,East,82,5.0,10.0,65,0.00,,---,0.01,VWS V14.00,2013-05-31 17:00:00,
2013-05-31 13:01:00,85.3,72.2,30.01,East,82,4.0,6.0,65,0.00,,---,0.01,VWS V14.00,2013-05-31 17:01:00,
2013-05-31 13:05:00,86.0,71.5,30.01,ENE,73,2.0,7.0,62,0.00,,---,0.01,VWS V14.00,2013-05-31 17:05:00,
2013-05-31 13:06:00,86.2,71.2,30.01,East,97,6.0,10.0,61,0.00,,---,0.01,VWS V14.00,2013-05-31 17:06:00,
2013-05-31 13:10:00,86.3,70.8,30.01,ENE,61,8.0,10.0,60,0.00,,---,0.01,VWS V14.00,2013-05-31 17:10:00,
2013-05-31 13:11:00,86.1,71.6,30.01,East,92,4.0,8.0,62,0.00,,---,0.01,VWS V14.00,2013-05-31 17:11:00,
2013-05-31 13:15:00,86.0,71.0,30.01,ENE,59,4.0,10.0,61,0.00,,---,0.01,VWS V14.00,2013-05-31 17:15:00,
2013-05-31 13:16:00,85.8,70.8,30.01,ENE,73,5.0,11.0,61,0.00,,---,0.01,VWS V14.00,2013-05-31 17:16:00,
2013-05-31 13:20:00,85.5,70.5,30.01,East,80,5.0,11.0,61,0.00,,---,0.01,VWS V14.00,2013-05-31 17:20:00,
2013-05-31 13:21:00,85.4,70.4,30.01,ENE,73,6.0,9.0,61,0.00,,---,0.01,VWS V14.00,2013-05-31 17:21:00,
2013-05-31 13:25:00,85.1,70.6,30.01,ENE,61,4.0,9.0,62,0.00,,---,0.01,VWS V14.00,2013-05-31 17:25:00,
2013-05-31 13:26:00,85.0,71.0,30.01,ENE,70,5.0,6.0,63,0.00,,---,0.01,VWS V14.00,2013-05-31 17:26:00,
2013-05-31 13:30:00,85.2,71.2,30.01,East,88,7.0,7.0,63,0.00,,---,0.01,VWS V14.00,2013-05-31 17:30:00,
2013-05-31 13:31:00,85.4,70.9,30.01,SE,127,2.0,9.0,62,0.00,,---,0.01,VWS V14.00,2013-05-31 17:31:00,
2013-05-31 13:35:00,85.5,70.5,30.01,East,97,4.0,9.0,61,0.00,,---,0.01,VWS V14.00,2013-05-31 17:35:00,
2013-05-31 13:36:00,85.6,70.6,30.01,East,91,5.0,6.0,61,0.00,,---,0.01,VWS V14.00,2013-05-31 17:36:00,
2013-05-31 13:40:00,85.6,70.6,30.01,East,86,5.0,8.0,61,0.00,,---,0.01,VWS V14.00,2013-05-31 17:40:00,
2013-05-31 13:41:00,85.8,70.8,30.00,East,94,5.0,8.0,61,0.00,,---,0.01,VWS V14.00,2013-05-31 17:41:00,
2013-05-31 13:45:00,85.9,71.4,30.01,East,87,4.0,9.0,62,0.00,,---,0.01,VWS V14.00,2013-05-31 17:45:00,
2013-05-31 13:46:00,86.0,71.5,30.00,ENE,76,8.0,8.0,62,0.00,,---,0.01,VWS V14.00,2013-05-31 17:46:00,
2013-05-31 13:50:00,86.2,70.2,30.00,East,84,6.0,12.0,59,0.00,,---,0.01,VWS V14.00,2013-05-31 17:50:00,
2013-05-31 13:51:00,86.3,70.3,30.00,ENE,75,4.0,9.0,59,0.00,,---,0.01,VWS V14.00,2013-05-31 17:51:00,
2013-05-31 13:55:00,86.3,69.8,30.00,East,85,3.0,13.0,58,0.00,,---,0.01,VWS V14.00,2013-05-31 17:55:00,
2013-05-31 13:56:00,86.3,69.8,30.00,East,99,5.0,9.0,58,0.00,,---,0.01,VWS V14.00,2013-05-31 17:56:00,
2013-05-31 14:00:00,86.3,70.3,30.00,ESE,113,0.0,9.0,59,0.00,,---,0.01,VWS V14.00,2013-05-31 18:00:00,
2013-05-31 14:01:00,86.5,71.0,29.99,ESE,109,4.0,5.0,60,0.00,,---,0.01,VWS V14.00,2013-05-31 18:01:00,
2013-05-31 14:05:00,86.6,71.1,30.00,East,97,2.0,8.0,60,0.00,,---,0.01,VWS V14.00,2013-05-31 18:05:00,
2013-05-31 14:06:00,86.7,70.2,30.00,ESE,103,6.0,9.0,58,0.00,,---,0.01,VWS V14.00,2013-05-31 18:06:00,
2013-05-31 14:10:00,86.6,70.6,30.00,East,82,6.0,10.0,59,0.00,,---,0.01,VWS V14.00,2013-05-31 18:10:00,
2013-05-31 14:11:00,86.5,70.5,30.00,East,86,6.0,11.0,59,0.00,,---,0.01,VWS V14.00,2013-05-31 18:11:00,
2013-05-31 14:15:00,85.8,70.8,30.00,ENE,75,13.0,15.0,61,0.00,,---,0.01,VWS V14.00,2013-05-31 18:15:00,
2013-05-31 14:16:00,85.0,70.5,30.00,ENE,73,9.0,19.0,62,0.00,,---,0.01,VWS V14.00,2013-05-31 18:16:00,
2013-05-31 14:20:00,83.6,70.1,30.00,NE,46,8.0,19.0,64,0.00,,---,0.01,VWS V14.00,2013-05-31 18:20:00,
2013-05-31 14:21:00,82.8,70.3,30.00,East,84,7.0,11.0,66,0.00,,---,0.01,VWS V14.00,2013-05-31 18:21:00,
2013-05-31 14:25:00,81.9,70.3,30.00,ENE,74,13.0,13.0,68,0.00,,---,0.01,VWS V14.00,2013-05-31 18:25:00,
2013-05-31 14:26:00,81.6,70.4,30.00,NE,42,1.0,13.0,69,0.00,,---,0.01,VWS V14.00,2013-05-31 18:26:00,
2013-05-31 14:30:00,81.1,70.8,30.00,ENE,61,7.0,13.0,71,0.00,,---,0.01,VWS V14.00,2013-05-31 18:30:00,
2013-05-31 14:31:00,80.7,70.4,30.00,NNE,24,5.0,11.0,71,0.00,,---,0.01,VWS V14.00,2013-05-31 18:31:00,
2013-05-31 14:35:00,80.0,70.2,30.00,ENE,73,6.0,12.0,72,0.00,,---,0.02,VWS V14.00,2013-05-31 18:35:00,
2013-05-31 14:36:00,79.6,70.2,30.00,ENE,59,10.0,10.0,73,0.00,,---,0.02,VWS V14.00,2013-05-31 18:36:00,
2013-05-31 14:40:00,79.4,70.4,30.00,ENE,65,6.0,11.0,74,0.00,,---,0.02,VWS V14.00,2013-05-31 18:40:00,
2013-05-31 14:41:00,79.4,70.4,30.00,ENE,65,11.0,11.0,74,0.00,,---,0.02,VWS V14.00,2013-05-31 18:41:00,
2013-05-31 14:45:00,79.7,70.7,30.00,ENE,64,7.0,11.0,74,0.00,,---,0.02,VWS V14.00,2013-05-31 18:45:00,
2013-05-31 14:46:00,80.0,71.0,30.00,ENE,59,3.0,12.0,74,0.00,,---,0.02,VWS V14.00,2013-05-31 18:46:00,
2013-05-31 14:50:00,80.7,71.7,30.00,East,94,12.0,12.0,74,0.00,,---,0.02,VWS V14.00,2013-05-31 18:50:00,
2013-05-31 14:51:00,81.2,70.9,30.00,East,91,9.0,18.0,71,0.00,,---,0.02,VWS V14.00,2013-05-31 18:51:00,
2013-05-31 14:55:00,81.7,71.0,30.00,ENE,70,9.0,18.0,70,0.00,,---,0.02,VWS V14.00,2013-05-31 18:55:00,
2013-05-31 14:56:00,81.9,70.7,30.00,ENE,57,12.0,13.0,69,0.00,,---,0.02,VWS V14.00,2013-05-31 18:56:00,
2013-05-31 15:00:00,82.2,71.4,29.99,East,80,5.0,15.0,70,0.00,,---,0.02,VWS V14.00,2013-05-31 19:00:00,
2013-05-31 15:01:00,82.5,70.9,29.99,ENE,59,6.0,10.0,68,0.00,,---,0.02,VWS V14.00,2013-05-31 19:01:00,
2013-05-31 15:05:00,83.0,71.4,29.99,ENE,61,6.0,12.0,68,0.00,,---,0.02,VWS V14.00,2013-05-31 19:05:00,
2013-05-31 15:06:00,83.3,71.6,29.99,NNE,19,4.0,9.0,68,0.00,,---,0.02,VWS V14.00,2013-05-31 19:06:00,
2013-05-31 15:10:00,83.8,71.7,29.99,East,82,5.0,9.0,67,0.00,,---,0.02,VWS V14.00,2013-05-31 19:10:00,
2013-05-31 15:11:00,84.2,72.1,29.99,East,96,13.0,13.0,67,0.00,,---,0.02,VWS V14.00,2013-05-31 19:11:00,
2013-05-31 15:15:00,84.6,71.6,29.99,NE,53,6.0,13.0,65,0.00,,---,0.02,VWS V14.00,2013-05-31 19:15:00,
2013-05-31 15:16:00,84.6,71.6,29.98,NE,47,9.0,13.0,65,0.00,,---,0.02,VWS V14.00,2013-05-31 19:16:00,
2013-05-31 15:20:00,84.5,71.9,29.98,ENE,66,6.0,13.0,66,0.00,,---,0.02,VWS V14.00,2013-05-31 19:20:00,
2013-05-31 15:21:00,84.5,71.9,29.98,ENE,71,6.0,10.0,66,0.00,,---,0.02,VWS V14.00,2013-05-31 19:21:00,
2013-05-31 15:25:00,84.3,71.3,29.98,NNE,13,4.0,14.0,65,0.00,,---,0.02,VWS V14.00,2013-05-31 19:25:00,
2013-05-31 15:26:00,84.1,71.1,29.98,East,85,7.0,11.0,65,0.00,,---,0.02,VWS V14.00,2013-05-31 19:26:00,
2013-05-31 15:30:00,84.1,71.5,29.98,ENE,69,6.0,12.0,66,0.00,,---,0.02,VWS V14.00,2013-05-31 19:30:00,
2013-05-31 15:31:00,84.3,70.8,29.98,ENE,62,10.0,12.0,64,0.00,,---,0.02,VWS V14.00,2013-05-31 19:31:00,
2013-05-31 15:35:00,84.7,71.2,29.98,NE,50,5.0,12.0,64,0.00,,---,0.02,VWS V14.00,2013-05-31 19:35:00,
2013-05-31 15:36:00,85.1,71.1,29.98,ENE,68,10.0,11.0,63,0.00,,---,0.02,VWS V14.00,2013-05-31 19:36:00,
2013-05-31 15:40:00,85.4,71.4,29.98,ENE,74,7.0,13.0,63,0.00,,---,0.02,VWS V14.00,2013-05-31 19:40:00,
2013-05-31 15:41:00,85.5,71.9,29.98,ENE,71,5.0,12.0,64,0.00,,---,0.02,VWS V14.00,2013-05-31 19:41:00,
2013-05-31 15:45:00,85.7,71.2,29.98,NE,46,9.0,13.0,62,0.00,,---,0.02,VWS V14.00,2013-05-31 19:45:00,
2013-05-31 15:46:00,85.8,71.3,29.98,NE,49,4.0,11.0,62,0.00,,---,0.02,VWS V14.00,2013-05-31 19:46:00,
2013-05-31 15:50:00,86.2,71.2,29.98,East,91,9.0,14.0,61,0.00,,---,0.02,VWS V14.00,2013-05-31 19:50:00,
2013-05-31 15:51:00,86.4,71.4,29.98,ENE,72,5.0,15.0,61,0.00,,---,0.02,VWS V14.00,2013-05-31 19:51:00,
2013-05-31 15:55:00,86.3,70.3,29.98,East,95,7.0,15.0,59,0.00,,---,0.02,VWS V14.00,2013-05-31 19:55:00,
2013-05-31 15:56:00,86.0,70.5,29.98,NE,46,6.0,12.0,60,0.00,,---,0.02,VWS V14.00,2013-05-31 19:56:00,
2013-05-31 16:00:00,85.6,70.6,29.98,East,86,3.0,15.0,61,0.00,,---,0.02,VWS V14.00,2013-05-31 20:00:00,
2013-05-31 16:01:00,85.4,70.4,29.98,East,80,8.0,11.0,61,0.00,,---,0.02,VWS V14.00,2013-05-31 20:01:00,
2013-05-31 16:05:00,85.0,70.5,29.98,East,79,6.0,13.0,62,0.00,,---,0.02,VWS V14.00,2013-05-31 20:05:00,
2013-05-31 16:06:00,84.9,70.4,29.98,ESE,111,5.0,8.0,62,0.00,,---,0.02,VWS V14.00,2013-05-31 20:06:00,
2013-05-31 16:10:00,84.8,70.8,29.98,NE,51,5.0,13.0,63,0.00,,---,0.02,VWS V14.00,2013-05-31 20:10:00,
2013-05-31 16:11:00,84.7,70.7,29.98,NE,53,6.0,13.0,63,0.00,,---,0.02,VWS V14.00,2013-05-31 20:11:00,
2013-05-31 16:15:00,84.6,70.6,29.98,NE,49,5.0,13.0,63,0.00,,---,0.02,VWS V14.00,2013-05-31 20:15:00,
2013-05-31 16:16:00,84.4,70.4,29.97,ENE,69,5.0,13.0,63,0.00,,---,0.02,VWS V14.00,2013-05-31 20:16:00,
2013-05-31 16:20:00,84.3,70.8,29.98,ENE,57,6.0,13.0,64,0.00,,---,0.02,VWS V14.00,2013-05-31 20:20:00,
2013-05-31 16:21:00,84.3,70.8,29.98,ENE,65,9.0,12.0,64,0.00,,---,0.02,VWS V14.00,2013-05-31 20:21:00,
2013-05-31 16:25:00,84.3,70.8,29.97,ENE,77,13.0,13.0,64,0.00,,---,0.02,VWS V14.00,2013-05-31 20:25:00,
2013-05-31 16:26:00,84.3,70.3,29.98,NE,46,8.0,13.0,63,0.00,,---,0.02,VWS V14.00,2013-05-31 20:26:00,
2013-05-31 16:30:00,84.2,70.7,29.98,ENE,57,4.0,13.0,64,0.00,,---,0.02,VWS V14.00,2013-05-31 20:30:00,
2013-05-31 16:31:00,84.2,70.7,29.98,East,86,9.0,10.0,64,0.00,,---,0.02,VWS V14.00,2013-05-31 20:31:00,
2013-05-31 16:35:00,84.3,71.3,29.98,East,101,8.0,10.0,65,0.00,,---,0.02,VWS V14.00,2013-05-31 20:35:00,
2013-05-31 16:36:00,84.5,70.5,29.98,NE,52,5.0,11.0,63,0.00,,---,0.02,VWS V14.00,2013-05-31 20:36:00,
2013-05-31 16:40:00,84.8,70.8,29.97,ENE,75,7.0,13.0,63,0.00,,---,0.02,VWS V14.00,2013-05-31 20:40:00,
2013-05-31 16:41:00,84.8,70.8,29.97,ENE,61,9.0,13.0,63,0.00,,---,0.02,VWS V14.00,2013-05-31 20:41:00,
2013-05-31 16:45:00,85.0,71.0,29.97,East,91,9.0,15.0,63,0.00,,---,0.02,VWS V14.00,2013-05-31 20:45:00,
2013-05-31 16:46:00,85.2,70.7,29.97,ESE,103,12.0,13.0,62,0.00,,---,0.02,VWS V14.00,2013-05-31 20:46:00,
2013-05-31 16:50:00,85.4,70.9,29.97,ENE,69,8.0,13.0,62,0.00,,---,0.02,VWS V14.00,2013-05-31 20:50:00,
2013-05-31 16:51:00,85.5,71.0,29.97,ESE,103,5.0,8.0,62,0.00,,---,0.02,VWS V14.00,2013-05-31 20:51:00,
2013-05-31 16:55:00,85.2,70.2,29.98,ENE,71,10.0,13.0,61,0.00,,---,0.02,VWS V14.00,2013-05-31 20:55:00,
2013-05-31 16:56:00,84.8,69.9,29.97,NE,49,4.0,13.0,61,0.00,,---,0.02,VWS V14.00,2013-05-31 20:56:00,
2013-05-31 17:00:00,84.4,70.4,29.97,NE,53,4.0,13.0,63,0.00,,---,0.02,VWS V14.00,2013-05-31 21:00:00,
2013-05-31 17:01:00,84.4,70.4,29.97,NE,44,11.0,12.0,63,0.00,,---,0.02,VWS V14.00,2013-05-31 21:01:00,
2013-05-31 17:05:00,84.6,70.6,29.97,East,81,8.0,14.0,63,0.00,,---,0.02,VWS V14.00,2013-05-31 21:05:00,
2013-05-31 17:06:00,84.6,70.6,29.97,East,80,9.0,10.0,63,0.00,,---,0.02,VWS V14.00,2013-05-31 21:06:00,
2013-05-31 17:10:00,84.5,70.1,29.97,ENE,76,7.0,14.0,62,0.00,,---,0.02,VWS V14.00,2013-05-31 21:10:00,
2013-05-31 17:11:00,84.2,70.2,29.97,East,93,4.0,10.0,63,0.00,,---,0.02,VWS V14.00,2013-05-31 21:11:00,
2013-05-31 17:15:00,84.1,70.2,29.97,ENE,67,5.0,10.0,63,0.00,,---,0.02,VWS V14.00,2013-05-31 21:15:00,
2013-05-31 17:16:00,83.9,69.5,29.97,NE,49,4.0,10.0,62,0.00,,---,0.02,VWS V14.00,2013-05-31 21:16:00,
2013-05-31 17:20:00,83.7,69.8,29.97,ENE,68,8.0,10.0,63,0.00,,---,0.02,VWS V14.00,2013-05-31 21:20:00,
2013-05-31 17:21:00,83.6,69.7,29.97,East,84,9.0,10.0,63,0.00,,---,0.02,VWS V14.00,2013-05-31 21:21:00,
2013-05-31 17:25:00,83.4,69.9,29.97,ENE,67,5.0,10.0,64,0.00,,---,0.02,VWS V14.00,2013-05-31 21:25:00,
2013-05-31 17:26:00,83.3,69.9,29.97,ENE,57,1.0,8.0,64,0.00,,---,0.02,VWS V14.00,2013-05-31 21:26:00,
2013-05-31 17:30:00,83.3,69.9,29.97,East,86,6.0,8.0,64,0.00,,---,0.02,VWS V14.00,2013-05-31 21:30:00,
2013-05-31 17:31:00,83.2,69.8,29.97,ENE,72,8.0,8.0,64,0.00,,---,0.02,VWS V14.00,2013-05-31 21:31:00,
2013-05-31 17:35:00,83.2,69.3,29.97,ENE,57,9.0,10.0,63,0.00,,---,0.02,VWS V14.00,2013-05-31 21:35:00,
2013-05-31 17:36:00,83.2,69.3,29.97,NNE,32,10.0,12.0,63,0.00,,---,0.02,VWS V14.00,2013-05-31 21:36:00,
2013-05-31 17:40:00,83.3,69.4,29.97,ENE,75,7.0,13.0,63,0.00,,---,0.02,VWS V14.00,2013-05-31 21:40:00,
2013-05-31 17:41:00,83.4,69.0,29.96,NE,48,5.0,13.0,62,0.00,,---,0.02,VWS V14.00,2013-05-31 21:41:00,
2013-05-31 17:45:00,83.4,69.0,29.96,East,83,4.0,13.0,62,0.00,,---,0.02,VWS V14.00,2013-05-31 21:45:00,
2013-05-31 17:46:00,83.5,69.1,29.96,ENE,63,4.0,9.0,62,0.00,,---,0.02,VWS V14.00,2013-05-31 21:46:00,
2013-05-31 17:50:00,83.4,69.5,29.96,ENE,70,8.0,9.0,63,0.00,,---,0.02,VWS V14.00,2013-05-31 21:50:00,
2013-05-31 17:51:00,83.4,69.5,29.96,East,92,8.0,12.0,63,0.00,,---,0.02,VWS V14.00,2013-05-31 21:51:00,
2013-05-31 17:55:00,83.2,69.8,29.96,ENE,57,5.0,12.0,64,0.00,,---,0.02,VWS V14.00,2013-05-31 21:55:00,
2013-05-31 17:56:00,83.1,69.7,29.96,NE,34,1.0,14.0,64,0.00,,---,0.02,VWS V14.00,2013-05-31 21:56:00,
2013-05-31 18:00:00,82.9,69.9,29.97,East,86,4.0,14.0,65,0.00,,---,0.02,VWS V14.00,2013-05-31 22:00:00,
2013-05-31 18:01:00,82.8,69.8,29.97,East,82,10.0,14.0,65,0.00,,---,0.02,VWS V14.00,2013-05-31 22:01:00,
2013-05-31 18:05:00,82.5,69.6,29.97,East,90,12.0,15.0,65,0.00,,---,0.02,VWS V14.00,2013-05-31 22:05:00,
2013-05-31 18:06:00,82.4,69.5,29.97,ESE,105,4.0,12.0,65,0.00,,---,0.02,VWS V14.00,2013-05-31 22:06:00,
2013-05-31 18:10:00,82.3,69.8,29.97,NE,37,10.0,12.0,66,0.00,,---,0.02,VWS V14.00,2013-05-31 22:10:00,
2013-05-31 18:11:00,82.1,69.6,29.97,ENE,69,14.0,15.0,66,0.00,,---,0.02,VWS V14.00,2013-05-31 22:11:00,
2013-05-31 18:15:00,82.0,69.5,29.97,NE,55,4.0,15.0,66,0.00,,---,0.02,VWS V14.00,2013-05-31 22:15:00,
2013-05-31 18:16:00,82.0,69.5,29.97,ENE,76,7.0,10.0,66,0.00,,---,0.02,VWS V14.00,2013-05-31 22:16:00,
2013-05-31 18:20:00,81.9,69.9,29.98,ENE,63,6.0,10.0,67,0.00,,---,0.02,VWS V14.00,2013-05-31 22:20:00,
2013-05-31 18:21:00,81.9,69.9,29.98,East,96,9.0,11.0,67,0.00,,---,0.02,VWS V14.00,2013-05-31 22:21:00,
2013-05-31 18:25:00,81.9,69.9,29.98,East,82,6.0,11.0,67,0.00,,---,0.02,VWS V14.00,2013-05-31 22:25:00,
2013-05-31 18:26:00,81.8,69.8,29.98,East,85,4.0,9.0,67,0.00,,---,0.02,VWS V14.00,2013-05-31 22:26:00,
2013-05-31 18:30:00,81.8,70.2,29.98,ESE,107,6.0,11.0,68,0.00,,---,0.02,VWS V14.00,2013-05-31 22:30:00,
2013-05-31 18:31:00,81.8,69.8,29.98,NE,49,5.0,10.0,67,0.00,,---,0.02,VWS V14.00,2013-05-31 22:31:00,
2013-05-31 18:35:00,81.7,70.1,29.98,ENE,76,10.0,14.0,68,0.00,,---,0.02,VWS V14.00,2013-05-31 22:35:00,
2013-05-31 18:36:00,81.6,70.0,29.98,ENE,71,6.0,12.0,68,0.00,,---,0.02,VWS V14.00,2013-05-31 22:36:00,
2013-05-31 18:40:00,81.5,69.9,29.98,NE,54,8.0,12.0,68,0.00,,---,0.02,VWS V14.00,2013-05-31 22:40:00,
2013-05-31 18:41:00,81.5,69.9,29.98,ENE,78,12.0,13.0,68,0.00,,---,0.02,VWS V14.00,2013-05-31 22:41:00,
2013-05-31 18:45:00,81.4,69.8,29.98,ENE,74,4.0,13.0,68,0.00,,---,0.02,VWS V14.00,2013-05-31 22:45:00,
2013-05-31 18:46:00,81.4,69.8,29.98,East,96,4.0,8.0,68,0.00,,---,0.02,VWS V14.00,2013-05-31 22:46:00,
2013-05-31 18:50:00,81.5,69.9,29.98,ENE,57,9.0,12.0,68,0.00,,---,0.02,VWS V14.00,2013-05-31 22:50:00,
2013-05-31 18:51:00,81.5,69.5,29.98,ENE,65,9.0,14.0,67,0.00,,---,0.02,VWS V14.00,2013-05-31 22:51:00,
2013-05-31 18:55:00,81.4,69.4,29.98,ENE,65,6.0,14.0,67,0.00,,---,0.02,VWS V14.00,2013-05-31 22:55:00,
2013-05-31 18:56:00,81.4,69.4,29.98,ENE,69,3.0,15.0,67,0.00,,---,0.02,VWS V14.00,2013-05-31 22:56:00,
2013-05-31 19:00:00,81.3,69.3,29.98,ENE,65,9.0,15.0,67,0.00,,---,0.02,VWS V14.00,2013-05-31 23:00:00,
2013-05-31 19:01:00,81.2,69.2,29.98,ENE,63,7.0,14.0,67,0.00,,---,0.02,VWS V14.00,2013-05-31 23:01:00,
2013-05-31 19:05:00,81.0,69.0,29.98,East,96,5.0,14.0,67,0.00,,---,0.02,VWS V14.00,2013-05-31 23:05:00,
2013-05-31 19:06:00,80.9,69.4,29.98,ENE,69,4.0,9.0,68,0.00,,---,0.02,VWS V14.00,2013-05-31 23:06:00,
2013-05-31 19:10:00,80.9,69.4,29.99,ENE,71,4.0,9.0,68,0.00,,---,0.02,VWS V14.00,2013-05-31 23:10:00,
2013-05-31 19:11:00,80.8,69.3,29.98,ENE,64,8.0,13.0,68,0.00,,---,0.02,VWS V14.00,2013-05-31 23:11:00,
2013-05-31 19:15:00,80.8,69.3,29.98,ENE,70,7.0,13.0,68,0.00,,---,0.02,VWS V14.00,2013-05-31 23:15:00,
2013-05-31 19:16:00,80.7,69.2,29.98,ENE,65,11.0,14.0,68,0.00,,---,0.02,VWS V14.00,2013-05-31 23:16:00,
2013-05-31 19:20:00,80.5,69.0,29.98,ENE,62,6.0,15.0,68,0.00,,---,0.02,VWS V14.00,2013-05-31 23:20:00,
2013-05-31 19:21:00,80.4,68.9,29.98,ENE,76,6.0,11.0,68,0.00,,---,0.02,VWS V14.00,2013-05-31 23:21:00,
2013-05-31 19:25:00,80.4,68.9,29.99,ENE,65,8.0,11.0,68,0.00,,---,0.02,VWS V14.00,2013-05-31 23:25:00,
2013-05-31 19:26:00,80.3,68.8,29.99,ENE,67,2.0,12.0,68,0.00,,---,0.02,VWS V14.00,2013-05-31 23:26:00,
2013-05-31 19:30:00,80.3,69.2,29.99,ENE,74,5.0,12.0,69,0.00,,---,0.02,VWS V14.00,2013-05-31 23:30:00,
2013-05-31 19:31:00,80.2,69.1,29.99,East,84,4.0,8.0,69,0.00,,---,0.02,VWS V14.00,2013-05-31 23:31:00,
2013-05-31 19:35:00,80.1,69.4,29.99,East,83,6.0,13.0,70,0.00,,---,0.02,VWS V14.00,2013-05-31 23:35:00,
2013-05-31 19:36:00,80.0,69.3,29.99,ENE,71,7.0,13.0,70,0.00,,---,0.02,VWS V14.00,2013-05-31 23:36:00,
2013-05-31 19:40:00,79.9,69.2,29.99,ENE,76,6.0,13.0,70,0.00,,---,0.02,VWS V14.00,2013-05-31 23:40:00,
2013-05-31 19:41:00,79.8,69.2,29.99,NE,56,7.0,10.0,70,0.00,,---,0.02,VWS V14.00,2013-05-31 23:41:00,
2013-05-31 19:45:00,79.7,69.1,29.99,NE,56,6.0,10.0,70,0.00,,---,0.02,VWS V14.00,2013-05-31 23:45:00,
2013-05-31 19:46:00,79.6,69.4,29.99,ENE,70,8.0,13.0,71,0.00,,---,0.02,VWS V14.00,2013-05-31 23:46:00,
2013-05-31 19:50:00,79.5,69.3,29.99,East,83,3.0,14.0,71,0.00,,---,0.02,VWS V14.00,2013-05-31 23:50:00,
2013-05-31 19:51:00,79.3,69.1,29.99,ENE,63,3.0,8.0,71,0.00,,---,0.02,VWS V14.00,2013-05-31 23:51:00,
2013-05-31 19:55:00,79.2,69.4,29.99,East,84,0.0,12.0,72,0.00,,---,0.02,VWS V14.00,2013-05-31 23:55:00,
2013-05-31 19:56:00,79.1,69.3,29.99,East,100,0.0,5.0,72,0.00,,---,0.02,VWS V14.00,2013-05-31 23:56:00,
2013-05-31 20:00:00,78.9,69.1,29.99,ENE,61,0.0,10.0,72,0.00,,---,0.02,VWS V14.00,2013-06-01 00:00:00,
2013-05-31 20:01:00,78.8,69.0,29.99,ENE,73,5.0,8.0,72,0.00,,---,0.02,VWS V14.00,2013-06-01 00:01:00,
2013-05-31 20:05:00,78.7,68.9,29.99,East,80,5.0,9.0,72,0.00,,---,0.02,VWS V14.00,2013-06-01 00:05:00,
2013-05-31 20:06:00,78.6,69.2,30.00,East,100,0.0,10.0,73,0.00,,---,0.02,VWS V14.00,2013-06-01 00:06:00,
2013-05-31 20:10:00,78.5,69.1,30.00,East,82,6.0,10.0,73,0.00,,---,0.02,VWS V14.00,2013-06-01 00:10:00,
2013-05-31 20:11:00,78.4,69.0,30.00,ESE,103,5.0,9.0,73,0.00,,---,0.02,VWS V14.00,2013-06-01 00:11:00,
2013-05-31 20:15:00,78.3,68.9,30.00,East,99,0.0,9.0,73,0.00,,---,0.02,VWS V14.00,2013-06-01 00:15:00,
2013-05-31 20:16:00,78.2,68.8,30.00,East,85,0.0,10.0,73,0.00,,---,0.02,VWS V14.00,2013-06-01 00:16:00,
2013-05-31 20:20:00,78.2,68.8,30.00,ENE,75,4.0,10.0,73,0.00,,---,0.02,VWS V14.00,2013-06-01 00:20:00,
2013-05-31 20:21:00,78.1,68.8,30.00,East,97,6.0,7.0,73,0.00,,---,0.02,VWS V14.00,2013-06-01 00:21:00,
2013-05-31 20:25:00,78.0,68.7,30.00,East,83,4.0,9.0,73,0.00,,---,0.02,VWS V14.00,2013-06-01 00:25:00,
2013-05-31 20:26:00,78.0,68.7,30.00,ENE,59,2.0,7.0,73,0.00,,---,0.02,VWS V14.00,2013-06-01 00:26:00,
2013-05-31 20:30:00,77.9,68.6,30.00,East,80,5.0,9.0,73,0.00,,---,0.02,VWS V14.00,2013-06-01 00:30:00,
2013-05-31 20:31:00,77.8,68.5,30.00,East,96,3.0,7.0,73,0.00,,---,0.02,VWS V14.00,2013-06-01 00:31:00,
2013-05-31 20:35:00,77.8,68.5,30.00,East,81,6.0,9.0,73,0.00,,---,0.02,VWS V14.00,2013-06-01 00:35:00,
2013-05-31 20:36:00,77.7,68.4,30.00,East,84,3.0,8.0,73,0.00,,---,0.02,VWS V14.00,2013-06-01 00:36:00,
2013-05-31 20:40:00,77.7,68.4,30.01,East,84,0.0,8.0,73,0.00,,---,0.02,VWS V14.00,2013-06-01 00:40:00,
2013-05-31 20:41:00,77.6,68.3,30.00,ENE,72,6.0,10.0,73,0.00,,---,0.02,VWS V14.00,2013-06-01 00:41:00,
2013-05-31 20:45:00,77.6,68.7,30.00,ENE,67,8.0,10.0,74,0.00,,---,0.02,VWS V14.00,2013-06-01 00:45:00,
2013-05-31 20:46:00,77.6,68.7,30.00,ENE,66,5.0,9.0,74,0.00,,---,0.02,VWS V14.00,2013-06-01 00:46:00,
2013-05-31 20:50:00,77.5,68.6,30.00,ENE,59,7.0,11.0,74,0.00,,---,0.02,VWS V14.00,2013-06-01 00:50:00,
2013-05-31 20:51:00,77.5,68.6,30.00,ENE,78,7.0,9.0,74,0.00,,---,0.02,VWS V14.00,2013-06-01 00:51:00,
2013-05-31 20:55:00,77.4,68.5,30.00,East,88,4.0,9.0,74,0.00,,---,0.02,VWS V14.00,2013-06-01 00:55:00,
2013-05-31 20:56:00,77.3,68.4,30.00,East,101,8.0,9.0,74,0.00,,---,0.02,VWS V14.00,2013-06-01 00:56:00,
2013-05-31 21:00:00,77.3,68.0,30.00,ENE,69,3.0,10.0,73,0.00,,---,0.02,VWS V14.00,2013-06-01 01:00:00,
2013-05-31 21:01:00,77.2,68.3,30.00,East,82,0.0,5.0,74,0.00,,---,0.02,VWS V14.00,2013-06-01 01:01:00,
2013-05-31 21:05:00,77.1,68.2,30.00,East,84,8.0,11.0,74,0.00,,---,0.02,VWS V14.00,2013-06-01 01:05:00,
2013-05-31 21:06:00,77.1,68.2,30.00,East,82,0.0,8.0,74,0.00,,---,0.02,VWS V14.00,2013-06-01 01:06:00,
2013-05-31 21:10:00,77.0,68.1,30.01,ENE,67,4.0,8.0,74,0.00,,---,0.02,VWS V14.00,2013-06-01 01:10:00,
2013-05-31 21:11:00,77.0,68.1,30.01,ENE,68,0.0,5.0,74,0.00,,---,0.02,VWS V14.00,2013-06-01 01:11:00,
2013-05-31 21:15:00,76.9,68.0,30.01,ENE,63,0.0,5.0,74,0.00,,---,0.02,VWS V14.00,2013-06-01 01:15:00,
2013-05-31 21:17:00,76.9,68.4,30.01,ENE,63,0.0,1.0,75,0.00,,---,0.02,VWS V14.00,2013-06-01 01:17:00,
2013-05-31 21:20:00,76.8,68.3,30.01,ENE,62,0.0,1.0,75,0.00,,---,0.02,VWS V14.00,2013-06-01 01:20:00,
2013-05-31 21:22:00,76.8,68.3,30.01,ENE,77,2.0,7.0,75,0.00,,---,0.02,VWS V14.00,2013-06-01 01:22:00,
2013-05-31 21:25:00,76.7,68.2,30.01,ENE,73,3.0,7.0,75,0.00,,---,0.02,VWS V14.00,2013-06-01 01:25:00,
2013-05-31 21:27:00,76.7,68.2,30.01,East,81,4.0,8.0,75,0.00,,---,0.02,VWS V14.00,2013-06-01 01:27:00,
2013-05-31 21:30:00,76.7,68.2,30.01,ENE,67,0.0,8.0,75,0.00,,---,0.02,VWS V14.00,2013-06-01 01:30:00,
2013-05-31 21:32:00,76.6,68.1,30.01,ENE,67,0.0,5.0,75,0.00,,---,0.02,VWS V14.00,2013-06-01 01:32:00,
2013-05-31 21:35:00,76.6,68.1,30.01,NE,50,3.0,9.0,75,0.00,,---,0.02,VWS V14.00,2013-06-01 01:35:00,
2013-05-31 21:37:00,76.5,68.4,30.01,NE,46,0.0,6.0,76,0.00,,---,0.02,VWS V14.00,2013-06-01 01:37:00,
2013-05-31 21:40:00,76.5,68.4,30.01,NE,46,0.0,6.0,76,0.00,,---,0.02,VWS V14.00,2013-06-01 01:40:00,
2013-05-31 21:42:00,76.4,68.3,30.01,ENE,58,4.0,6.0,76,0.00,,---,0.02,VWS V14.00,2013-06-01 01:42:00,
2013-05-31 21:45:00,76.4,68.3,30.01,ENE,57,5.0,7.0,76,0.00,,---,0.02,VWS V14.00,2013-06-01 01:45:00,
2013-05-31 21:47:00,76.4,68.3,30.01,ENE,78,5.0,7.0,76,0.00,,---,0.02,VWS V14.00,2013-06-01 01:47:00,
2013-05-31 21:50:00,76.3,68.6,30.01,ENE,78,5.0,7.0,77,0.00,,---,0.02,VWS V14.00,2013-06-01 01:50:00,
2013-05-31 21:52:00,76.3,68.6,30.01,East,81,4.0,8.0,77,0.00,,---,0.02,VWS V14.00,2013-06-01 01:52:00,
2013-05-31 21:55:00,76.3,68.6,30.01,East,93,4.0,8.0,77,0.00,,---,0.02,VWS V14.00,2013-06-01 01:55:00,
2013-05-31 21:57:00,76.3,68.6,30.01,East,90,0.0,5.0,77,0.00,,---,0.02,VWS V14.00,2013-06-01 01:57:00,
2013-05-31 22:00:00,76.3,68.6,30.02,ENE,76,3.0,6.0,77,0.00,,---,0.02,VWS V14.00,2013-06-01 02:00:00,
2013-05-31 22:02:00,76.3,68.6,30.02,ENE,77,0.0,7.0,77,0.00,,---,0.02,VWS V14.00,2013-06-01 02:02:00,
2013-05-31 22:05:00,76.3,68.9,30.02,ENE,78,2.0,7.0,78,0.00,,---,0.02,VWS V14.00,2013-06-01 02:05:00,
2013-05-31 22:07:00,76.3,68.9,30.02,East,85,4.0,8.0,78,0.00,,---,0.02,VWS V14.00,2013-06-01 02:07:00,
2013-05-31 22:10:00,76.3,68.9,30.01,East,82,5.0,8.0,78,0.00,,---,0.02,VWS V14.00,2013-06-01 02:10:00,
2013-05-31 22:12:00,76.3,68.9,30.01,ENE,62,4.0,7.0,78,0.00,,---,0.02,VWS V14.00,2013-06-01 02:12:00,
2013-05-31 22:15:00,76.2,68.8,30.01,NE,55,2.0,7.0,78,0.00,,---,0.02,VWS V14.00,2013-06-01 02:15:00,
2013-05-31 22:17:00,76.3,68.9,30.01,NE,47,2.0,6.0,78,0.00,,---,0.02,VWS V14.00,2013-06-01 02:17:00,
2013-05-31 22:20:00,76.2,68.8,30.01,ENE,69,4.0,8.0,78,0.00,,---,0.02,VWS V14.00,2013-06-01 02:20:00,
2013-05-31 22:22:00,76.2,68.8,30.01,ENE,61,5.0,7.0,78,0.00,,---,0.02,VWS V14.00,2013-06-01 02:22:00,
2013-05-31 22:25:00,76.2,68.8,30.01,ENE,66,4.0,9.0,78,0.00,,---,0.02,VWS V14.00,2013-06-01 02:25:00,
2013-05-31 22:27:00,76.2,68.8,30.01,ENE,63,4.0,7.0,78,0.00,,---,0.02,VWS V14.00,2013-06-01 02:27:00,
2013-05-31 22:30:00,76.1,68.8,30.01,ENE,63,2.0,7.0,78,0.00,,---,0.02,VWS V14.00,2013-06-01 02:30:00,
2013-05-31 22:32:00,76.1,68.8,30.01,ENE,63,4.0,5.0,78,0.00,,---,0.02,VWS V14.00,2013-06-01 02:32:00,
2013-05-31 22:35:00,76.0,68.7,30.01,ENE,76,5.0,10.0,78,0.00,,---,0.02,VWS V14.00,2013-06-01 02:35:00,
2013-05-31 22:37:00,76.0,69.0,30.02,ENE,65,3.0,8.0,79,0.00,,---,0.02,VWS V14.00,2013-06-01 02:37:00,
2013-05-31 22:40:00,75.9,68.9,30.01,ENE,78,5.0,8.0,79,0.00,,---,0.02,VWS V14.00,2013-06-01 02:40:00,
2013-05-31 22:42:00,75.8,68.5,30.01,SE,130,4.0,8.0,78,0.00,,---,0.02,VWS V14.00,2013-06-01 02:42:00,
2013-05-31 22:45:00,75.7,68.7,30.01,NE,53,2.0,9.0,79,0.00,,---,0.02,VWS V14.00,2013-06-01 02:45:00,
2013-05-31 22:47:00,75.7,68.7,30.01,East,93,1.0,7.0,79,0.00,,---,0.02,VWS V14.00,2013-06-01 02:47:00,
2013-05-31 22:50:00,75.7,68.7,30.01,ENE,76,5.0,7.0,79,0.00,,---,0.02,VWS V14.00,2013-06-01 02:50:00,
2013-05-31 22:52:00,75.6,68.6,30.01,ENE,74,6.0,7.0,79,0.00,,---,0.02,VWS V14.00,2013-06-01 02:52:00,
2013-05-31 22:55:00,75.5,68.9,30.01,ENE,71,1.0,7.0,80,0.00,,---,0.02,VWS V14.00,2013-06-01 02:55:00,
2013-05-31 22:57:00,75.5,68.9,30.01,ENE,66,4.0,6.0,80,0.00,,---,0.02,VWS V14.00,2013-06-01 02:57:00,
2013-05-31 23:00:00,75.4,68.8,30.01,East,94,6.0,8.0,80,0.00,,---,0.02,VWS V14.00,2013-06-01 03:00:00,
2013-05-31 23:02:00,75.3,68.7,30.01,East,86,4.0,7.0,80,0.00,,---,0.02,VWS V14.00,2013-06-01 03:02:00,
2013-05-31 23:05:00,75.3,68.7,30.01,ENE,65,5.0,11.0,80,0.00,,---,0.02,VWS V14.00,2013-06-01 03:05:00,
2013-05-31 23:07:00,75.3,68.7,30.01,ENE,63,1.0,6.0,80,0.00,,---,0.02,VWS V14.00,2013-06-01 03:07:00,
2013-05-31 23:10:00,75.2,68.6,30.01,ENE,68,5.0,7.0,80,0.00,,---,0.02,VWS V14.00,2013-06-01 03:10:00,
2013-05-31 23:12:00,75.1,68.5,30.01,ENE,69,2.0,5.0,80,0.00,,---,0.02,VWS V14.00,2013-06-01 03:12:00,
2013-05-31 23:15:00,75.1,68.5,30.01,East,79,0.0,8.0,80,0.00,,---,0.02,VWS V14.00,2013-06-01 03:15:00,
2013-05-31 23:17:00,75.1,68.9,30.01,East,79,0.0,0.0,81,0.00,,---,0.02,VWS V14.00,2013-06-01 03:17:00,
2013-05-31 23:20:00,75.0,68.8,30.01,ENE,71,5.0,6.0,81,0.00,,---,0.02,VWS V14.00,2013-06-01 03:20:00,
2013-05-31 23:22:00,75.0,68.8,30.02,ENE,70,5.0,6.0,81,0.00,,---,0.02,VWS V14.00,2013-06-01 03:22:00,
2013-05-31 23:25:00,75.0,68.8,30.01,ENE,74,2.0,7.0,81,0.00,,---,0.02,VWS V14.00,2013-06-01 03:25:00,
2013-05-31 23:27:00,74.9,68.7,30.01,East,80,2.0,7.0,81,0.00,,---,0.02,VWS V14.00,2013-06-01 03:27:00,
2013-05-31 23:30:00,74.9,68.7,30.01,ENE,65,7.0,7.0,81,0.00,,---,0.02,VWS V14.00,2013-06-01 03:30:00,
2013-05-31 23:32:00,74.9,68.7,30.01,ENE,65,1.0,7.0,81,0.00,,---,0.02,VWS V14.00,2013-06-01 03:32:00,
2013-05-31 23:35:00,74.9,68.7,30.01,ENE,63,6.0,7.0,81,0.00,,---,0.02,VWS V14.00,2013-06-01 03:35:00,
2013-05-31 23:37:00,74.8,68.6,30.01,ENE,69,5.0,7.0,81,0.00,,---,0.02,VWS V14.00,2013-06-01 03:37:00,
2013-05-31 23:40:00,74.8,68.6,30.01,ENE,65,0.0,7.0,81,0.00,,---,0.02,VWS V14.00,2013-06-01 03:40:00,
2013-05-31 23:42:00,74.8,68.9,30.01,ENE,65,3.0,4.0,82,0.00,,---,0.02,VWS V14.00,2013-06-01 03:42:00,
2013-05-31 23:45:00,74.8,68.9,30.01,ENE,66,4.0,7.0,82,0.00,,---,0.02,VWS V14.00,2013-06-01 03:45:00,
2013-05-31 23:47:00,74.7,66.3,30.01,ENE,67,0.0,5.0,75,0.00,,---,0.02,VWS V14.00,2013-06-01 03:47:00,
2013-05-31 23:50:00,74.7,66.3,30.01,ENE,67,4.0,6.0,75,0.00,,---,0.02,VWS V14.00,2013-06-01 03:50:00,
2013-05-31 23:52:00,74.6,66.5,30.01,ENE,66,0.0,6.0,76,0.00,,---,0.02,VWS V14.00,2013-06-01 03:52:00,
2013-05-31 23:55:00,74.6,66.5,30.01,ENE,65,4.0,6.0,76,0.00,,---,0.02,VWS V14.00,2013-06-01 03:55:00,
2013-05-31 23:57:00,74.6,66.5,30.01,ENE,65,3.0,5.0,76,0.00,,---,0.02,VWS V14.00,2013-06-01 03:57:00,